| time (UTC) | temp C | wind direction | speed KPH | gust KPH | rain 1hr cm | rain 24hr cm | rain mn cm | humidity % | barometer mb |
| 20260906151928 | 32 | 360 | 1.6 | 8.0 | 0.00 | 0.10 | 0.00 | 66 | 1012.7 |
| 20260906151810 | 31 | 360 | 3.2 | 8.0 | 0.00 | 0.10 | 0.00 | 66 | 1012.6 |
| 20260906151543 | 31 | 39 | 3.2 | 4.8 | 0.00 | 0.10 | 0.00 | 66 | 1012.6 |
| 20260906151428 | 31 | 60 | 1.6 | 4.8 | 0.00 | 0.10 | 0.00 | 65 | 1012.5 |
| 20260906151335 | 31 | 66 | 1.6 | 4.8 | 0.00 | 0.10 | 0.00 | 65 | 1012.6 |
| 20260906151221 | 31 | 61 | 1.6 | 4.8 | 0.00 | 0.10 | 0.00 | 65 | 1012.6 |
| 20260906151130 | 31 | 73 | 1.6 | 4.8 | 0.00 | 0.10 | 0.00 | 66 | 1012.6 |
| 20260906151020 | 31 | 123 | 1.6 | 4.8 | 0.00 | 0.10 | 0.00 | 66 | 1012.6 |
| 20260906150927 | 31 | 135 | 1.6 | 4.8 | 0.00 | 0.10 | 0.00 | 65 | 1012.6 |
| 20260906150833 | 31 | 184 | 1.6 | 4.8 | 0.00 | 0.10 | 0.00 | 65 | 1012.5 |
| 20260906150719 | 31 | 184 | 1.6 | 4.8 | 0.00 | 0.10 | 0.00 | 66 | 1012.6 |
| 20260906150625 | 31 | 15 | 0.0 | 3.2 | 0.00 | 0.10 | 0.00 | 68 | 1012.5 |
| 20260906150532 | 31 | 15 | 1.6 | 3.2 | 0.00 | 0.10 | 0.00 | 66 | 1012.5 |
| 20260906150444 | 31 | 192 | 0.0 | 3.2 | 0.00 | 0.10 | 0.00 | 67 | 1012.5 |
| 20260906150349 | 31 | 157 | 0.0 | 4.8 | 0.00 | 0.10 | 0.00 | 67 | 1012.5 |
| 20260906150259 | 31 | 157 | 0.0 | 4.8 | 0.00 | 0.10 | 0.00 | 67 | 1012.5 |
| 20260906150032 | 31 | 157 | 0.0 | 4.8 | 0.00 | 0.10 | 0.00 | 67 | 1012.5 |
| 20260906145920 | 31 | 157 | 1.6 | 4.8 | 0.00 | 0.10 | 0.00 | 66 | 1012.4 |
| 20260906145831 | 31 | 157 | 1.6 | 4.8 | 0.00 | 0.10 | 0.00 | 67 | 1012.4 |
| 20260906145737 | 31 | 157 | 1.6 | 6.4 | 0.00 | 0.10 | 0.00 | 66 | 1012.4 |
| 20260906145625 | 31 | 157 | 0.0 | 8.0 | 0.00 | 0.10 | 0.00 | 66 | 1012.4 |
| 20260906145532 | 31 | 157 | 1.6 | 8.0 | 0.00 | 0.10 | 0.00 | 66 | 1012.5 |
| 20260906145420 | 31 | 157 | 1.6 | 8.0 | 0.00 | 0.10 | 0.00 | 67 | 1012.4 |
| 20260906145328 | 31 | 157 | 3.2 | 8.0 | 0.00 | 0.10 | 0.00 | 67 | 1012.4 |
| 20260906145219 | 31 | 173 | 1.6 | 8.0 | 0.00 | 0.10 | 0.00 | 67 | 1012.4 |
| 20260906145125 | 31 | 212 | 1.6 | 8.0 | 0.00 | 0.10 | 0.00 | 66 | 1012.5 |
| 20260906145033 | 31 | 313 | 1.6 | 8.0 | 0.00 | 0.10 | 0.00 | 68 | 1012.5 |
| 20260906144920 | 31 | 313 | 3.2 | 8.0 | 0.00 | 0.10 | 0.00 | 69 | 1012.4 |
| 20260906144826 | 31 | 313 | 4.8 | 8.0 | 0.00 | 0.10 | 0.00 | 69 | 1012.4 |
| 20260906144803 | 30 | 323 | 4.8 | 8.0 | 0.00 | 0.10 | 0.00 | 69 | 1012.4 |
| 20260906144536 | 30 | 13 | 3.2 | 6.4 | 0.00 | 0.10 | 0.00 | 70 | 1012.5 |
| 20260906144421 | 30 | 321 | 1.6 | 4.8 | 0.00 | 0.10 | 0.00 | 71 | 1012.5 |
| 20260906144348 | 30 | 277 | 0.0 | 4.8 | 0.00 | 0.10 | 0.00 | 71 | 1012.4 |
| 20260906144255 | 30 | 238 | 1.6 | 3.2 | 0.00 | 0.10 | 0.00 | 70 | 1012.3 |
| 20260906144127 | 30 | 238 | 1.6 | 3.2 | 0.00 | 0.10 | 0.00 | 69 | 1012.4 |
| 20260906144034 | 30 | 238 | 1.6 | 4.8 | 0.00 | 0.10 | 0.00 | 69 | 1012.3 |
| 20260906143940 | 30 | 219 | 1.6 | 6.4 | 0.00 | 0.10 | 0.00 | 69 | 1012.4 |
| 20260906143825 | 30 | 114 | 1.6 | 6.4 | 0.00 | 0.10 | 0.00 | 69 | 1012.3 |
| 20260906143733 | 30 | 114 | 1.6 | 6.4 | 0.00 | 0.10 | 0.00 | 70 | 1012.3 |
| 20260906143620 | 30 | 114 | 0.0 | 6.4 | 0.00 | 0.10 | 0.00 | 71 | 1012.3 |
| 20260906143529 | 30 | 114 | 0.0 | 6.4 | 0.00 | 0.10 | 0.00 | 70 | 1012.3 |
| 20260906143420 | 30 | 114 | 1.6 | 6.4 | 0.00 | 0.10 | 0.00 | 71 | 1012.3 |
| 20260906143347 | 30 | 114 | 3.2 | 6.4 | 0.00 | 0.10 | 0.00 | 70 | 1012.3 |
| 20260906143257 | 30 | 114 | 3.2 | 6.4 | 0.00 | 0.10 | 0.00 | 68 | 1012.3 |
| 20260906143031 | 30 | 251 | 3.2 | 4.8 | 0.00 | 0.10 | 0.00 | 68 | 1012.4 |
| 20260906142920 | 30 | 197 | 3.2 | 4.8 | 0.00 | 0.10 | 0.00 | 69 | 1012.4 |
| 20260906142829 | 30 | 168 | 1.6 | 6.4 | 0.00 | 0.10 | 0.00 | 70 | 1012.4 |
| 20260906142736 | 30 | 111 | 1.6 | 4.8 | 0.00 | 0.10 | 0.00 | 70 | 1012.4 |
| 20260906142622 | 30 | 30 | 0.0 | 6.4 | 0.00 | 0.10 | 0.00 | 70 | 1012.4 |
| 20260906142528 | 30 | 30 | 1.6 | 6.4 | 0.00 | 0.10 | 0.00 | 70 | 1012.4 |
| 20260906142435 | 30 | 30 | 1.6 | 6.4 | 0.00 | 0.10 | 0.00 | 71 | 1012.4 |
| 20260906142324 | 30 | 30 | 1.6 | 6.4 | 0.00 | 0.10 | 0.00 | 69 | 1012.4 |
| 20260906142231 | 30 | 167 | 0.0 | 6.4 | 0.00 | 0.10 | 0.00 | 69 | 1012.4 |
| 20260906142137 | 30 | 218 | 0.0 | 6.4 | 0.00 | 0.10 | 0.00 | 69 | 1012.4 |
| 20260906142023 | 30 | 218 | 1.6 | 6.4 | 0.00 | 0.10 | 0.00 | 69 | 1012.4 |
| 20260906141930 | 29 | 128 | 3.2 | 6.4 | 0.00 | 0.10 | 0.00 | 69 | 1012.5 |
| 20260906141811 | 29 | 128 | 1.6 | 6.4 | 0.00 | 0.10 | 0.00 | 69 | 1012.4 |
| 20260906141545 | 29 | 86 | 3.2 | 6.4 | 0.00 | 0.10 | 0.00 | 70 | 1012.5 |
| 20260906141450 | 29 | 86 | 3.2 | 6.4 | 0.00 | 0.10 | 0.00 | 70 | 1012.4 |
| 20260906141336 | 29 | 79 | 3.2 | 6.4 | 0.00 | 0.10 | 0.00 | 70 | 1012.5 |
| 20260906141222 | 29 | 96 | 3.2 | 6.4 | 0.00 | 0.10 | 0.00 | 70 | 1012.4 |
| 20260906141132 | 29 | 88 | 3.2 | 6.4 | 0.00 | 0.10 | 0.00 | 71 | 1012.4 |
| 20260906141020 | 29 | 119 | 3.2 | 6.4 | 0.00 | 0.10 | 0.00 | 71 | 1012.4 |
| 20260906140928 | 29 | 84 | 4.8 | 6.4 | 0.00 | 0.10 | 0.00 | 70 | 1012.4 |
| 20260906140836 | 29 | 114 | 3.2 | 6.4 | 0.00 | 0.10 | 0.00 | 71 | 1012.5 |
| 20260906140724 | 28 | 111 | 1.6 | 6.4 | 0.00 | 0.10 | 0.00 | 71 | 1012.5 |
| 20260906140635 | 28 | 63 | 1.6 | 6.4 | 0.00 | 0.10 | 0.00 | 72 | 1012.5 |
| 20260906140522 | 28 | 68 | 1.6 | 6.4 | 0.00 | 0.10 | 0.00 | 71 | 1012.4 |
| 20260906140429 | 28 | 55 | 1.6 | 6.4 | 0.00 | 0.10 | 0.00 | 72 | 1012.4 |
| 20260906140355 | 28 | 55 | 3.2 | 6.4 | 0.00 | 0.10 | 0.00 | 72 | 1012.4 |
| 20260906140326 | 28 | 58 | 3.2 | 6.4 | 0.00 | 0.10 | 0.00 | 73 | 1012.4 |
| 20260906140023 | 28 | 113 | 3.2 | 6.4 | 0.00 | 0.10 | 0.00 | 72 | 1012.4 |
| 20260906135930 | 28 | 140 | 3.2 | 6.4 | 0.00 | 0.10 | 0.00 | 72 | 1012.5 |
| 20260906135836 | 28 | 107 | 3.2 | 6.4 | 0.00 | 0.10 | 0.00 | 72 | 1012.5 |
| 20260906135724 | 28 | 86 | 1.6 | 4.8 | 0.00 | 0.10 | 0.00 | 73 | 1012.5 |
| 20260906135630 | 28 | 107 | 1.6 | 4.8 | 0.00 | 0.10 | 0.00 | 72 | 1012.5 |
| 20260906135521 | 28 | 78 | 1.6 | 4.8 | 0.00 | 0.10 | 0.00 | 73 | 1012.5 |
| 20260906135428 | 28 | 59 | 1.6 | 4.8 | 0.00 | 0.10 | 0.00 | 73 | 1012.5 |
| 20260906135334 | 28 | 71 | 1.6 | 8.0 | 0.00 | 0.10 | 0.00 | 73 | 1012.5 |
| 20260906135220 | 28 | 117 | 1.6 | 8.0 | 0.00 | 0.10 | 0.00 | 73 | 1012.5 |
| 20260906135147 | 28 | 82 | 3.2 | 8.0 | 0.00 | 0.10 | 0.00 | 73 | 1012.5 |
| 20260906135031 | 28 | 89 | 1.6 | 8.0 | 0.00 | 0.10 | 0.00 | 73 | 1012.5 |
| 20260906134937 | 27 | 59 | 1.6 | 8.0 | 0.00 | 0.10 | 0.00 | 73 | 1012.5 |
| 20260906134829 | 27 | 82 | 3.2 | 8.0 | 0.00 | 0.10 | 0.00 | 73 | 1012.5 |
| 20260906134757 | 27 | 82 | 3.2 | 8.0 | 0.00 | 0.10 | 0.00 | 74 | 1012.5 |
| 20260906134531 | 27 | 69 | 4.8 | 8.0 | 0.00 | 0.10 | 0.00 | 74 | 1012.5 |
| 20260906134438 | 27 | 42 | 4.8 | 8.0 | 0.00 | 0.10 | 0.00 | 74 | 1012.5 |
| 20260906134329 | 27 | 33 | 4.8 | 9.7 | 0.00 | 0.10 | 0.00 | 74 | 1012.5 |
| 20260906134234 | 27 | 105 | 3.2 | 9.7 | 0.00 | 0.10 | 0.00 | 75 | 1012.4 |
| 20260906134121 | 27 | 84 | 4.8 | 9.7 | 0.00 | 0.10 | 0.00 | 74 | 1012.4 |
| 20260906134029 | 27 | 138 | 4.8 | 11.3 | 0.00 | 0.10 | 0.00 | 74 | 1012.5 |
| 20260906133936 | 27 | 75 | 4.8 | 11.3 | 0.00 | 0.10 | 0.00 | 74 | 1012.5 |
| 20260906133824 | 27 | 107 | 3.2 | 11.3 | 0.00 | 0.10 | 0.00 | 75 | 1012.4 |
| 20260906133736 | 27 | 57 | 4.8 | 11.3 | 0.00 | 0.10 | 0.00 | 74 | 1012.5 |
| 20260906133624 | 27 | 69 | 4.8 | 11.3 | 0.00 | 0.10 | 0.00 | 75 | 1012.4 |
| 20260906133531 | 27 | 114 | 3.2 | 11.3 | 0.00 | 0.10 | 0.00 | 75 | 1012.5 |
| 20260906133439 | 27 | 61 | 4.8 | 11.3 | 0.00 | 0.10 | 0.00 | 75 | 1012.5 |
| 20260906133344 | 27 | 68 | 4.8 | 11.3 | 0.00 | 0.10 | 0.00 | 75 | 1012.5 |
| 20260906133318 | 27 | 113 | 4.8 | 9.7 | 0.00 | 0.10 | 0.00 | 75 | 1012.5 |
| 20260906133031 | 27 | 126 | 4.8 | 9.7 | 0.00 | 0.10 | 0.00 | 74 | 1012.7 |
| 20260906132919 | 27 | 116 | 4.8 | 9.7 | 0.00 | 0.10 | 0.00 | 76 | 1012.7 |
| 20260906132826 | 27 | 127 | 4.8 | 9.7 | 0.00 | 0.10 | 0.00 | 75 | 1012.7 |
| 20260906132734 | 27 | 121 | 4.8 | 9.7 | 0.00 | 0.10 | 0.00 | 74 | 1012.7 |
| 20260906132624 | 27 | 59 | 4.8 | 9.7 | 0.00 | 0.10 | 0.00 | 75 | 1012.7 |
| 20260906132531 | 27 | 69 | 4.8 | 11.3 | 0.00 | 0.10 | 0.00 | 76 | 1012.8 |
| 20260906132458 | 27 | 122 | 4.8 | 9.7 | 0.00 | 0.10 | 0.00 | 76 | 1012.7 |
| 20260906132323 | 27 | 119 | 3.2 | 9.7 | 0.00 | 0.10 | 0.00 | 75 | 1012.7 |
| 20260906132230 | 27 | 57 | 3.2 | 9.7 | 0.00 | 0.10 | 0.00 | 75 | 1012.8 |
| 20260906132158 | 27 | 102 | 3.2 | 9.7 | 0.00 | 0.10 | 0.00 | 75 | 1012.8 |
| 20260906132023 | 27 | 82 | 4.8 | 9.7 | 0.00 | 0.10 | 0.00 | 75 | 1012.8 |
| 20260906131935 | 27 | 63 | 4.8 | 9.7 | 0.00 | 0.10 | 0.00 | 75 | 1012.8 |
| 20260906131823 | 27 | 118 | 4.8 | 9.7 | 0.00 | 0.10 | 0.00 | 75 | 1012.9 |
| 20260906131754 | 27 | 117 | 3.2 | 9.7 | 0.00 | 0.10 | 0.00 | 75 | 1012.9 |
| 20260906131526 | 27 | 117 | 1.6 | 9.7 | 0.00 | 0.10 | 0.00 | 75 | 1013.0 |
| 20260906131437 | 27 | 96 | 1.6 | 9.7 | 0.00 | 0.10 | 0.00 | 75 | 1013.0 |
| 20260906131324 | 27 | 111 | 3.2 | 9.7 | 0.00 | 0.10 | 0.00 | 75 | 1012.9 |
| 20260906131231 | 27 | 119 | 4.8 | 9.7 | 0.00 | 0.10 | 0.00 | 75 | 1013.0 |
| 20260906131119 | 27 | 114 | 3.2 | 9.7 | 0.00 | 0.10 | 0.00 | 75 | 1013.0 |
| 20260906131027 | 27 | 133 | 3.2 | 8.0 | 0.00 | 0.10 | 0.00 | 76 | 1013.0 |
| 20260906130933 | 27 | 94 | 3.2 | 8.0 | 0.00 | 0.10 | 0.00 | 75 | 1013.0 |
| 20260906130824 | 27 | 45 | 4.8 | 8.0 | 0.00 | 0.10 | 0.00 | 75 | 1013.0 |
| 20260906130750 | 27 | 111 | 4.8 | 8.0 | 0.00 | 0.10 | 0.00 | 75 | 1013.1 |
| 20260906130636 | 27 | 56 | 4.8 | 8.0 | 0.00 | 0.10 | 0.00 | 76 | 1013.1 |
| 20260906130544 | 27 | 111 | 4.8 | 8.0 | 0.00 | 0.10 | 0.00 | 76 | 1013.0 |
| 20260906130431 | 27 | 122 | 4.8 | 8.0 | 0.00 | 0.10 | 0.00 | 76 | 1013.0 |
| 20260906130339 | 26 | 132 | 3.2 | 4.8 | 0.00 | 0.10 | 0.00 | 76 | 1013.0 |
| 20260906130313 | 26 | 51 | 3.2 | 4.8 | 0.00 | 0.10 | 0.00 | 76 | 1013.0 |
| 20260906130025 | 26 | 92 | 3.2 | 4.8 | 0.00 | 0.10 | 0.00 | 77 | 1013.1 |
| 20260906125932 | 26 | 80 | 1.6 | 4.8 | 0.00 | 0.10 | 0.00 | 76 | 1013.1 |
| 20260906125858 | 26 | 103 | 1.6 | 4.8 | 0.00 | 0.10 | 0.00 | 75 | 1013.1 |
| 20260906125725 | 26 | 103 | 3.2 | 4.8 | 0.00 | 0.10 | 0.00 | 75 | 1013.1 |
| 20260906125637 | 26 | 114 | 1.6 | 4.8 | 0.00 | 0.10 | 0.00 | 75 | 1013.1 |
| 20260906125524 | 26 | 138 | 1.6 | 4.8 | 0.00 | 0.10 | 0.00 | 76 | 1013.1 |
| 20260906125432 | 26 | 138 | 3.2 | 4.8 | 0.00 | 0.10 | 0.00 | 76 | 1013.1 |
| 20260906125319 | 26 | 138 | 3.2 | 4.8 | 0.00 | 0.10 | 0.00 | 76 | 1013.1 |
| 20260906125226 | 26 | 128 | 3.2 | 4.8 | 0.00 | 0.10 | 0.00 | 77 | 1013.0 |
| 20260906125132 | 26 | 195 | 3.2 | 4.8 | 0.00 | 0.10 | 0.00 | 76 | 1013.0 |
| 20260906125043 | 26 | 195 | 3.2 | 4.8 | 0.00 | 0.10 | 0.00 | 76 | 1013.0 |
| 20260906124929 | 26 | 195 | 1.6 | 4.8 | 0.00 | 0.10 | 0.00 | 77 | 1013.0 |
| 20260906124856 | 26 | 186 | 1.6 | 4.8 | 0.00 | 0.10 | 0.00 | 77 | 1013.1 |
| 20260906124806 | 25 | 186 | 3.2 | 4.8 | 0.00 | 0.10 | 0.00 | 77 | 1013.1 |
| 20260906124519 | 25 | 186 | 3.2 | 4.8 | 0.00 | 0.10 | 0.00 | 77 | 1013.1 |
| 20260906124429 | 25 | 186 | 3.2 | 4.8 | 0.00 | 0.10 | 0.00 | 77 | 1013.0 |
| 20260906124335 | 25 | 186 | 1.6 | 4.8 | 0.00 | 0.10 | 0.00 | 78 | 1013.1 |
| 20260906124223 | 25 | 157 | 0.0 | 1.6 | 0.00 | 0.10 | 0.00 | 79 | 1013.0 |
| 20260906124129 | 25 | 157 | 0.0 | 3.2 | 0.00 | 0.10 | 0.00 | 79 | 1013.0 |
| 20260906124035 | 25 | 157 | 0.0 | 3.2 | 0.00 | 0.10 | 0.00 | 79 | 1013.1 |
| 20260906123925 | 25 | 157 | 0.0 | 3.2 | 0.00 | 0.10 | 0.00 | 79 | 1013.1 |
| 20260906123832 | 25 | 157 | 0.0 | 3.2 | 0.00 | 0.10 | 0.00 | 80 | 1013.0 |
| 20260906123718 | 25 | 157 | 0.0 | 3.2 | 0.00 | 0.10 | 0.00 | 80 | 1013.0 |
| 20260906123626 | 25 | 157 | 0.0 | 3.2 | 0.00 | 0.10 | 0.00 | 79 | 1013.0 |
| 20260906123532 | 25 | 157 | 0.0 | 3.2 | 0.00 | 0.10 | 0.00 | 80 | 1013.0 |
| 20260906123419 | 25 | 157 | 0.0 | 3.2 | 0.00 | 0.10 | 0.00 | 80 | 1013.0 |
| 20260906123330 | 25 | 157 | 0.0 | 4.8 | 0.00 | 0.10 | 0.00 | 80 | 1013.0 |
| 20260906123304 | 24 | 157 | 0.0 | 4.8 | 0.00 | 0.10 | 0.00 | 82 | 1013.0 |
| 20260906123018 | 24 | 157 | 0.0 | 4.8 | 0.00 | 0.10 | 0.00 | 81 | 1013.1 |
| 20260906122926 | 24 | 157 | 0.0 | 4.8 | 0.00 | 0.10 | 0.00 | 81 | 1012.9 |
| 20260906122838 | 24 | 157 | 0.0 | 4.8 | 0.00 | 0.10 | 0.00 | 81 | 1013.0 |
| 20260906122724 | 24 | 157 | 1.6 | 4.8 | 0.00 | 0.10 | 0.00 | 81 | 1013.0 |
| 20260906122633 | 24 | 157 | 3.2 | 4.8 | 0.00 | 0.10 | 0.00 | 81 | 1013.0 |
| 20260906122519 | 24 | 203 | 1.6 | 4.8 | 0.00 | 0.10 | 0.00 | 81 | 1013.1 |
| 20260906122445 | 24 | 200 | 1.6 | 4.8 | 0.00 | 0.10 | 0.00 | 82 | 1013.1 |
| 20260906122332 | 23 | 182 | 1.6 | 4.8 | 0.00 | 0.10 | 0.00 | 82 | 1013.0 |
| 20260906122243 | 23 | 182 | 1.6 | 4.8 | 0.00 | 0.10 | 0.00 | 82 | 1013.1 |
| 20260906122210 | 23 | 182 | 1.6 | 3.2 | 0.00 | 0.10 | 0.00 | 82 | 1013.0 |
| 20260906121932 | 23 | 122 | 1.6 | 3.2 | 0.00 | 0.10 | 0.00 | 82 | 1013.0 |
| 20260906121859 | 23 | 122 | 1.6 | 3.2 | 0.00 | 0.10 | 0.00 | 82 | 1013.0 |
| 20260906121831 | 23 | 122 | 1.6 | 3.2 | 0.00 | 0.10 | 0.00 | 82 | 1012.9 |
| 20260906121527 | 23 | 134 | 0.0 | 3.2 | 0.00 | 0.10 | 0.00 | 82 | 1013.0 |
| 20260906121433 | 23 | 139 | 0.0 | 1.6 | 0.00 | 0.10 | 0.00 | 82 | 1012.8 |
| 20260906121338 | 23 | 139 | 0.0 | 0.0 | 0.00 | 0.10 | 0.00 | 82 | 1012.9 |
| 20260906121245 | 23 | 139 | 0.0 | 0.0 | 0.00 | 0.10 | 0.00 | 82 | 1012.9 |
| 20260906121151 | 23 | 139 | 0.0 | 1.6 | 0.00 | 0.10 | 0.00 | 82 | 1012.9 |
| 20260906121036 | 23 | 139 | 0.0 | 1.6 | 0.00 | 0.10 | 0.00 | 82 | 1012.9 |
| 20260906120922 | 23 | 139 | 0.0 | 1.6 | 0.00 | 0.10 | 0.00 | 82 | 1012.9 |
| 20260906120833 | 23 | 139 | 0.0 | 1.6 | 0.00 | 0.10 | 0.00 | 82 | 1012.9 |
| 20260906120800 | 23 | 139 | 0.0 | 1.6 | 0.00 | 0.10 | 0.00 | 82 | 1012.9 |
| 20260906120544 | 23 | 139 | 0.0 | 1.6 | 0.00 | 0.10 | 0.00 | 82 | 1012.9 |
| 20260906120430 | 23 | 139 | 0.0 | 3.2 | 0.00 | 0.10 | 0.00 | 82 | 1012.9 |
| 20260906120337 | 23 | 139 | 0.0 | 3.2 | 0.00 | 0.10 | 0.00 | 82 | 1012.9 |
| 20260906120253 | 23 | 139 | 0.0 | 4.8 | 0.00 | 0.10 | 0.00 | 82 | 1012.9 |
| 20260906120026 | 23 | 89 | 0.0 | 4.8 | 0.00 | 0.10 | 0.00 | 82 | 1012.9 |
| 20260906115934 | 23 | 109 | 0.0 | 4.8 | 0.00 | 0.10 | 0.00 | 82 | 1013.0 |
| 20260906115820 | 23 | 109 | 0.0 | 4.8 | 0.00 | 0.10 | 0.00 | 82 | 1012.9 |
| 20260906115726 | 23 | 109 | 0.0 | 4.8 | 0.00 | 0.10 | 0.00 | 82 | 1013.0 |
| 20260906115654 | 23 | 109 | 1.6 | 4.8 | 0.00 | 0.10 | 0.00 | 82 | 1013.0 |
| 20260906115525 | 23 | 113 | 3.2 | 4.8 | 0.00 | 0.10 | 0.00 | 82 | 1013.0 |
| 20260906115451 | 23 | 109 | 3.2 | 4.8 | 0.00 | 0.10 | 0.00 | 82 | 1012.9 |
| 20260906115337 | 23 | 124 | 3.2 | 4.8 | 0.00 | 0.10 | 0.00 | 82 | 1012.9 |
| 20260906115246 | 23 | 118 | 1.6 | 4.8 | 0.00 | 0.10 | 0.00 | 82 | 1012.9 |
| 20260906115131 | 23 | 113 | 1.6 | 4.8 | 0.00 | 0.10 | 0.00 | 82 | 1012.9 |
| 20260906115035 | 23 | 79 | 0.0 | 4.8 | 0.00 | 0.10 | 0.00 | 82 | 1012.9 |
| 20260906114922 | 23 | 101 | 1.6 | 4.8 | 0.00 | 0.10 | 0.00 | 82 | 1012.9 |
| 20260906114833 | 23 | 101 | 1.6 | 4.8 | 0.00 | 0.10 | 0.00 | 82 | 1013.0 |
| 20260906114803 | 23 | 105 | 1.6 | 4.8 | 0.00 | 0.10 | 0.00 | 82 | 1013.0 |
| 20260906114536 | 23 | 141 | 3.2 | 4.8 | 0.00 | 0.10 | 0.00 | 82 | 1013.0 |
| 20260906114423 | 23 | 141 | 3.2 | 4.8 | 0.00 | 0.10 | 0.00 | 82 | 1013.0 |
| 20260906114334 | 23 | 137 | 3.2 | 4.8 | 0.00 | 0.10 | 0.00 | 82 | 1012.9 |
| 20260906114222 | 23 | 123 | 3.2 | 4.8 | 0.00 | 0.10 | 0.00 | 82 | 1012.9 |
| 20260906114128 | 23 | 126 | 1.6 | 4.8 | 0.00 | 0.10 | 0.00 | 82 | 1013.0 |
| 20260906114054 | 23 | 94 | 0.0 | 4.8 | 0.00 | 0.10 | 0.00 | 82 | 1013.1 |
| 20260906113919 | 23 | 66 | 0.0 | 4.8 | 0.00 | 0.10 | 0.00 | 81 | 1013.0 |
| 20260906113826 | 23 | 66 | 0.0 | 4.8 | 0.00 | 0.10 | 0.00 | 81 | 1013.1 |
| 20260906113753 | 23 | 67 | 1.6 | 4.8 | 0.00 | 0.10 | 0.00 | 82 | 1013.0 |
| 20260906113643 | 23 | 67 | 3.2 | 4.8 | 0.00 | 0.10 | 0.00 | 82 | 1013.0 |
| 20260906113530 | 23 | 81 | 3.2 | 4.8 | 0.00 | 0.10 | 0.00 | 82 | 1012.9 |
| 20260906113437 | 23 | 83 | 1.6 | 4.8 | 0.00 | 0.10 | 0.00 | 81 | 1013.0 |
| 20260906113323 | 23 | 105 | 0.0 | 4.8 | 0.00 | 0.10 | 0.00 | 80 | 1013.0 |
| 20260906113258 | 23 | 109 | 0.0 | 4.8 | 0.00 | 0.10 | 0.00 | 80 | 1013.0 |
| 20260906113052 | 23 | 331 | 0.0 | 4.8 | 0.00 | 0.10 | 0.00 | 80 | 1013.1 |
| 20260906112919 | 23 | 331 | 0.0 | 4.8 | 0.00 | 0.10 | 0.00 | 81 | 1013.1 |
| 20260906112825 | 23 | 331 | 0.0 | 4.8 | 0.00 | 0.10 | 0.00 | 81 | 1013.0 |
| 20260906112733 | 23 | 332 | 0.0 | 4.8 | 0.00 | 0.10 | 0.00 | 80 | 1013.0 |
| 20260906112620 | 23 | 331 | 1.6 | 4.8 | 0.00 | 0.10 | 0.00 | 81 | 1012.9 |
| 20260906112531 | 23 | 331 | 1.6 | 4.8 | 0.00 | 0.10 | 0.00 | 81 | 1013.0 |
| 20260906112419 | 23 | 322 | 3.2 | 4.8 | 0.00 | 0.10 | 0.00 | 81 | 1013.0 |
| 20260906112327 | 23 | 315 | 1.6 | 4.8 | 0.00 | 0.10 | 0.00 | 81 | 1013.0 |
| 20260906112233 | 23 | 284 | 1.6 | 4.8 | 0.00 | 0.10 | 0.00 | 81 | 1013.1 |
| 20260906112118 | 23 | 227 | 0.0 | 4.8 | 0.00 | 0.10 | 0.00 | 81 | 1013.0 |
| 20260906112024 | 23 | 227 | 0.0 | 4.8 | 0.00 | 0.10 | 0.00 | 81 | 1013.0 |
| 20260906111936 | 23 | 231 | 1.6 | 4.8 | 0.00 | 0.10 | 0.00 | 81 | 1013.0 |
| 20260906111903 | 23 | 231 | 1.6 | 4.8 | 0.00 | 0.10 | 0.00 | 81 | 1013.0 |
| 20260906111833 | 23 | 202 | 1.6 | 3.2 | 0.00 | 0.10 | 0.00 | 81 | 1012.9 |
| 20260906111524 | 23 | 127 | 1.6 | 3.2 | 0.00 | 0.10 | 0.00 | 81 | 1012.8 |
| 20260906111432 | 23 | 127 | 1.6 | 4.8 | 0.00 | 0.10 | 0.00 | 81 | 1012.8 |
| 20260906111342 | 23 | 127 | 1.6 | 4.8 | 0.00 | 0.10 | 0.00 | 81 | 1012.8 |
| 20260906111227 | 23 | 121 | 1.6 | 4.8 | 0.00 | 0.10 | 0.00 | 80 | 1012.8 |
| 20260906111135 | 23 | 109 | 1.6 | 4.8 | 0.00 | 0.10 | 0.00 | 80 | 1012.8 |
| 20260906111021 | 23 | 82 | 1.6 | 4.8 | 0.00 | 0.10 | 0.00 | 80 | 1012.8 |
| 20260906110928 | 23 | 85 | 1.6 | 4.8 | 0.00 | 0.10 | 0.00 | 80 | 1012.7 |
| 20260906110820 | 23 | 121 | 1.6 | 4.8 | 0.00 | 0.10 | 0.00 | 81 | 1012.7 |
| 20260906110726 | 23 | 130 | 1.6 | 4.8 | 0.00 | 0.10 | 0.00 | 81 | 1012.7 |
| 20260906110632 | 23 | 137 | 1.6 | 4.8 | 0.00 | 0.10 | 0.00 | 80 | 1012.6 |
| 20260906110519 | 23 | 133 | 0.0 | 3.2 | 0.00 | 0.10 | 0.00 | 80 | 1012.5 |
| 20260906110426 | 23 | 94 | 0.0 | 1.6 | 0.00 | 0.10 | 0.00 | 80 | 1012.6 |
| 20260906110333 | 23 | 94 | 0.0 | 1.6 | 0.00 | 0.10 | 0.00 | 79 | 1012.5 |
| 20260906110308 | 23 | 80 | 0.0 | 1.6 | 0.00 | 0.10 | 0.00 | 79 | 1012.5 |
| 20260906110021 | 23 | 80 | 0.0 | 1.6 | 0.00 | 0.10 | 0.00 | 80 | 1012.5 |
| 20260906105927 | 23 | 80 | 0.0 | 1.6 | 0.00 | 0.10 | 0.00 | 80 | 1012.6 |
| 20260906105834 | 23 | 80 | 0.0 | 1.6 | 0.00 | 0.10 | 0.00 | 80 | 1012.5 |
| 20260906105725 | 23 | 225 | 0.0 | 1.6 | 0.00 | 0.10 | 0.00 | 79 | 1012.4 |
| 20260906105652 | 23 | 225 | 0.0 | 1.6 | 0.00 | 0.10 | 0.00 | 80 | 1012.4 |
| 20260906105518 | 23 | 225 | 0.0 | 1.6 | 0.00 | 0.10 | 0.00 | 80 | 1012.3 |
| 20260906105425 | 23 | 225 | 0.0 | 0.0 | 0.00 | 0.10 | 0.00 | 80 | 1012.3 |
| 20260906105332 | 23 | 225 | 0.0 | 0.0 | 0.00 | 0.10 | 0.00 | 80 | 1012.2 |
| 20260906105219 | 23 | 225 | 0.0 | 1.6 | 0.00 | 0.10 | 0.00 | 80 | 1012.2 |
| 20260906105129 | 23 | 225 | 0.0 | 1.6 | 0.00 | 0.10 | 0.00 | 80 | 1012.3 |
| 20260906105055 | 23 | 225 | 0.0 | 1.6 | 0.00 | 0.10 | 0.00 | 80 | 1012.3 |
| 20260906104920 | 23 | 225 | 0.0 | 1.6 | 0.00 | 0.10 | 0.00 | 79 | 1012.3 |
| 20260906104826 | 23 | 225 | 0.0 | 3.2 | 0.00 | 0.10 | 0.00 | 80 | 1012.4 |
| 20260906104756 | 23 | 225 | 0.0 | 6.4 | 0.00 | 0.10 | 0.00 | 80 | 1012.4 |
| 20260906104532 | 23 | 225 | 0.0 | 6.4 | 0.00 | 0.10 | 0.00 | 80 | 1012.4 |
| 20260906104440 | 23 | 280 | 0.0 | 6.4 | 0.00 | 0.10 | 0.00 | 80 | 1012.3 |
| 20260906104325 | 23 | 285 | 0.0 | 6.4 | 0.00 | 0.10 | 0.00 | 80 | 1012.4 |
| 20260906104231 | 23 | 285 | 0.0 | 6.4 | 0.00 | 0.10 | 0.00 | 80 | 1012.3 |
| 20260906104118 | 23 | 296 | 1.6 | 6.4 | 0.00 | 0.10 | 0.00 | 80 | 1012.3 |
| 20260906104026 | 23 | 336 | 3.2 | 6.4 | 0.00 | 0.10 | 0.00 | 80 | 1012.3 |
| 20260906103935 | 23 | 312 | 3.2 | 6.4 | 0.00 | 0.10 | 0.00 | 80 | 1012.3 |
| 20260906103823 | 23 | 315 | 3.2 | 8.0 | 0.00 | 0.10 | 0.00 | 80 | 1012.3 |
| 20260906103751 | 23 | 335 | 4.8 | 9.7 | 0.00 | 0.10 | 0.00 | 80 | 1012.3 |
| 20260906103618 | 23 | 319 | 4.8 | 9.7 | 0.00 | 0.10 | 0.00 | 80 | 1012.3 |
| 20260906103544 | 23 | 333 | 3.2 | 9.7 | 0.00 | 0.10 | 0.00 | 80 | 1012.2 |
| 20260906103429 | 23 | 315 | 1.6 | 12.9 | 0.00 | 0.10 | 0.00 | 80 | 1012.2 |
| 20260906103337 | 23 | 325 | 1.6 | 12.9 | 0.00 | 0.10 | 0.00 | 80 | 1012.2 |
| 20260906103310 | 23 | 317 | 3.2 | 12.9 | 0.00 | 0.10 | 0.00 | 80 | 1012.2 |
| 20260906103023 | 23 | 355 | 6.4 | 12.9 | 0.00 | 0.10 | 0.00 | 80 | 1012.2 |
| 20260906102929 | 23 | 342 | 6.4 | 12.9 | 0.00 | 0.10 | 0.00 | 80 | 1012.2 |
| 20260906102837 | 23 | 336 | 6.4 | 14.5 | 0.00 | 0.10 | 0.00 | 80 | 1012.3 |
| 20260906102727 | 23 | 333 | 8.0 | 14.5 | 0.00 | 0.10 | 0.00 | 81 | 1012.2 |
| 20260906102635 | 23 | 336 | 9.7 | 14.5 | 0.00 | 0.10 | 0.00 | 81 | 1012.3 |
| 20260906102522 | 23 | 355 | 9.7 | 14.5 | 0.00 | 0.10 | 0.00 | 81 | 1012.2 |
| 20260906102429 | 23 | 333 | 8.0 | 14.5 | 0.00 | 0.10 | 0.00 | 81 | 1012.2 |
| 20260906102336 | 23 | 330 | 8.0 | 14.5 | 0.00 | 0.10 | 0.00 | 81 | 1012.2 |
| 20260906102226 | 23 | 319 | 9.7 | 14.5 | 0.00 | 0.10 | 0.00 | 81 | 1012.2 |
| 20260906102133 | 23 | 333 | 9.7 | 14.5 | 0.00 | 0.10 | 0.00 | 81 | 1012.2 |
| 20260906102019 | 23 | 339 | 8.0 | 14.5 | 0.00 | 0.10 | 0.00 | 81 | 1012.2 |
| 20260906101926 | 23 | 338 | 4.8 | 9.7 | 0.00 | 0.10 | 0.00 | 81 | 1012.0 |
| 20260906101854 | 23 | 330 | 1.6 | 9.7 | 0.00 | 0.10 | 0.00 | 81 | 1012.0 |
| 20260906101807 | 23 | 339 | 1.6 | 9.7 | 0.00 | 0.10 | 0.00 | 81 | 1012.0 |
| 20260906101519 | 23 | 322 | 3.2 | 9.7 | 0.00 | 0.10 | 0.00 | 81 | 1011.9 |
| 20260906101426 | 23 | 317 | 4.8 | 9.7 | 0.00 | 0.10 | 0.00 | 81 | 1012.0 |
| 20260906101333 | 23 | 305 | 4.8 | 9.7 | 0.00 | 0.10 | 0.00 | 81 | 1012.0 |
| 20260906101220 | 23 | 329 | 4.8 | 9.7 | 0.00 | 0.10 | 0.00 | 81 | 1012.0 |
| 20260906101128 | 23 | 330 | 6.4 | 9.7 | 0.00 | 0.10 | 0.00 | 81 | 1012.1 |
| 20260906101058 | 23 | 311 | 6.4 | 9.7 | 0.00 | 0.10 | 0.00 | 82 | 1012.1 |
| 20260906100925 | 23 | 321 | 6.4 | 11.3 | 0.00 | 0.10 | 0.00 | 82 | 1012.1 |
| 20260906100833 | 23 | 340 | 6.4 | 14.5 | 0.00 | 0.10 | 0.00 | 82 | 1012.1 |
| 20260906100720 | 23 | 318 | 6.4 | 14.5 | 0.00 | 0.10 | 0.00 | 82 | 1012.1 |
| 20260906100627 | 23 | 325 | 4.8 | 14.5 | 0.00 | 0.10 | 0.00 | 82 | 1012.1 |
| 20260906100534 | 23 | 327 | 6.4 | 14.5 | 0.00 | 0.10 | 0.00 | 82 | 1012.1 |
| 20260906100422 | 23 | 300 | 6.4 | 14.5 | 0.00 | 0.10 | 0.00 | 82 | 1012.1 |
| 20260906100349 | 23 | 323 | 6.4 | 14.5 | 0.00 | 0.10 | 0.00 | 82 | 1012.1 |
| 20260906100258 | 23 | 321 | 6.4 | 14.5 | 0.00 | 0.10 | 0.00 | 82 | 1012.1 |
| 20260906095934 | 23 | 311 | 9.7 | 14.5 | 0.00 | 0.10 | 0.00 | 82 | 1012.1 |
| 20260906095825 | 23 | 309 | 9.7 | 14.5 | 0.00 | 0.10 | 0.00 | 83 | 1012.0 |
| 20260906095731 | 23 | 313 | 8.0 | 14.5 | 0.00 | 0.10 | 0.00 | 83 | 1012.0 |
| 20260906095637 | 23 | 307 | 8.0 | 14.5 | 0.00 | 0.10 | 0.00 | 83 | 1011.9 |
| 20260906095523 | 23 | 333 | 8.0 | 12.9 | 0.00 | 0.10 | 0.00 | 83 | 1012.0 |
| 20260906095430 | 23 | 315 | 8.0 | 12.9 | 0.00 | 0.10 | 0.00 | 83 | 1011.9 |
| 20260906095322 | 23 | 322 | 6.4 | 12.9 | 0.00 | 0.10 | 0.00 | 83 | 1012.0 |
| 20260906095229 | 23 | 323 | 6.4 | 9.7 | 0.00 | 0.10 | 0.00 | 83 | 1012.0 |
| 20260906095134 | 23 | 325 | 4.8 | 8.0 | 0.00 | 0.10 | 0.00 | 83 | 1011.9 |
| 20260906095040 | 23 | 315 | 4.8 | 6.4 | 0.00 | 0.10 | 0.00 | 83 | 1012.0 |
| 20260906094925 | 23 | 329 | 3.2 | 6.4 | 0.00 | 0.10 | 0.00 | 83 | 1011.9 |
| 20260906094830 | 23 | 318 | 1.6 | 6.4 | 0.00 | 0.10 | 0.00 | 83 | 1011.9 |
| 20260906094805 | 23 | 323 | 1.6 | 6.4 | 0.00 | 0.10 | 0.00 | 83 | 1011.9 |
| 20260906094538 | 23 | 276 | 3.2 | 6.4 | 0.00 | 0.10 | 0.00 | 83 | 1012.0 |
| 20260906094423 | 23 | 283 | 3.2 | 6.4 | 0.00 | 0.10 | 0.00 | 84 | 1012.1 |
| 20260906094350 | 23 | 327 | 3.2 | 6.4 | 0.00 | 0.10 | 0.00 | 84 | 1012.1 |
| 20260906094237 | 23 | 313 | 3.2 | 6.4 | 0.00 | 0.10 | 0.00 | 84 | 1012.1 |
| 20260906094123 | 23 | 324 | 4.8 | 6.4 | 0.00 | 0.10 | 0.00 | 84 | 1012.2 |
| 20260906094034 | 23 | 302 | 3.2 | 6.4 | 0.00 | 0.10 | 0.00 | 84 | 1012.2 |
| 20260906093922 | 23 | 296 | 3.2 | 8.0 | 0.00 | 0.10 | 0.00 | 84 | 1012.2 |
| 20260906093829 | 23 | 281 | 1.6 | 8.0 | 0.00 | 0.10 | 0.00 | 83 | 1012.2 |
| 20260906093737 | 23 | 289 | 1.6 | 8.0 | 0.00 | 0.10 | 0.00 | 83 | 1012.1 |
| 20260906093624 | 23 | 312 | 1.6 | 8.0 | 0.00 | 0.10 | 0.00 | 84 | 1012.1 |
| 20260906093550 | 23 | 296 | 1.6 | 8.0 | 0.00 | 0.10 | 0.00 | 84 | 1012.1 |
| 20260906093459 | 23 | 296 | 1.6 | 8.0 | 0.00 | 0.10 | 0.00 | 84 | 1012.0 |
| 20260906093325 | 23 | 308 | 4.8 | 8.0 | 0.00 | 0.10 | 0.00 | 84 | 1011.9 |
| 20260906093256 | 23 | 283 | 4.8 | 8.0 | 0.00 | 0.10 | 0.00 | 84 | 1011.9 |
| 20260906093029 | 23 | 293 | 3.2 | 8.0 | 0.00 | 0.10 | 0.00 | 83 | 1011.9 |
| 20260906092919 | 23 | 318 | 0.0 | 4.8 | 0.00 | 0.10 | 0.00 | 83 | 1011.8 |
| 20260906092828 | 23 | 304 | 0.0 | 4.8 | 0.00 | 0.10 | 0.00 | 83 | 1011.8 |
| 20260906092755 | 23 | 278 | 0.0 | 4.8 | 0.00 | 0.10 | 0.00 | 83 | 1011.7 |
| 20260906092621 | 23 | 278 | 0.0 | 4.8 | 0.00 | 0.10 | 0.00 | 83 | 1011.7 |
| 20260906092529 | 23 | 278 | 1.6 | 4.8 | 0.00 | 0.10 | 0.00 | 83 | 1011.7 |
| 20260906092436 | 23 | 278 | 1.6 | 4.8 | 0.00 | 0.10 | 0.00 | 83 | 1011.7 |
| 20260906092327 | 23 | 286 | 1.6 | 4.8 | 0.00 | 0.10 | 0.00 | 84 | 1011.7 |
| 20260906092233 | 23 | 297 | 1.6 | 4.8 | 0.00 | 0.10 | 0.00 | 84 | 1011.7 |
| 20260906092121 | 23 | 242 | 3.2 | 4.8 | 0.00 | 0.10 | 0.00 | 84 | 1011.7 |
| 20260906092029 | 23 | 234 | 1.6 | 4.8 | 0.00 | 0.10 | 0.00 | 84 | 1011.8 |
| 20260906091937 | 23 | 222 | 1.6 | 6.4 | 0.00 | 0.10 | 0.00 | 84 | 1011.7 |
| 20260906091822 | 23 | 248 | 1.6 | 6.4 | 0.00 | 0.10 | 0.00 | 84 | 1011.8 |
| 20260906091755 | 23 | 248 | 3.2 | 8.0 | 0.00 | 0.10 | 0.00 | 84 | 1011.8 |
| 20260906091529 | 23 | 217 | 3.2 | 8.0 | 0.00 | 0.10 | 0.00 | 83 | 1012.0 |
| 20260906091435 | 23 | 234 | 1.6 | 9.7 | 0.00 | 0.10 | 0.00 | 84 | 1012.0 |
| 20260906091342 | 23 | 257 | 1.6 | 9.7 | 0.00 | 0.10 | 0.00 | 84 | 1012.0 |
| 20260906091249 | 23 | 257 | 1.6 | 9.7 | 0.00 | 0.10 | 0.00 | 84 | 1012.0 |
| 20260906091154 | 23 | 276 | 3.2 | 9.7 | 0.00 | 0.10 | 0.00 | 84 | 1012.1 |
| 20260906091043 | 23 | 241 | 3.2 | 9.7 | 0.00 | 0.10 | 0.00 | 84 | 1012.0 |
| 20260906090929 | 23 | 244 | 4.8 | 9.7 | 0.00 | 0.10 | 0.00 | 83 | 1012.0 |
| 20260906090837 | 23 | 240 | 3.2 | 9.7 | 0.00 | 0.10 | 0.00 | 83 | 1012.0 |
| 20260906090722 | 23 | 277 | 3.2 | 9.7 | 0.00 | 0.10 | 0.00 | 83 | 1012.0 |
| 20260906090648 | 23 | 242 | 3.2 | 9.7 | 0.00 | 0.10 | 0.00 | 83 | 1012.0 |
| 20260906090536 | 23 | 232 | 1.6 | 4.8 | 0.00 | 0.10 | 0.00 | 82 | 1012.1 |
| 20260906090427 | 23 | 194 | 1.6 | 3.2 | 0.00 | 0.10 | 0.00 | 82 | 1012.1 |
| 20260906090353 | 23 | 194 | 1.6 | 3.2 | 0.00 | 0.10 | 0.00 | 82 | 1012.1 |
| 20260906090303 | 23 | 194 | 0.0 | 3.2 | 0.00 | 0.10 | 0.00 | 82 | 1012.1 |
| 20260906090037 | 23 | 194 | 0.0 | 3.2 | 0.00 | 0.10 | 0.00 | 82 | 1012.0 |
| 20260906085945 | 23 | 194 | 0.0 | 3.2 | 0.00 | 0.10 | 0.00 | 82 | 1012.0 |
| 20260906085850 | 23 | 194 | 0.0 | 3.2 | 0.00 | 0.10 | 0.00 | 82 | 1012.1 |
| 20260906085719 | 23 | 194 | 0.0 | 3.2 | 0.00 | 0.10 | 0.00 | 82 | 1012.2 |
| 20260906085648 | 23 | 194 | 0.0 | 3.2 | 0.00 | 0.10 | 0.00 | 82 | 1012.3 |
| 20260906085554 | 24 | 194 | 1.6 | 3.2 | 0.00 | 0.10 | 0.00 | 81 | 1012.3 |
| 20260906085459 | 24 | 194 | 1.6 | 3.2 | 0.00 | 0.10 | 0.00 | 82 | 1012.3 |
| 20260906085323 | 24 | 194 | 0.0 | 3.2 | 0.00 | 0.10 | 0.00 | 82 | 1012.3 |
| 20260906085230 | 24 | 194 | 0.0 | 3.2 | 0.00 | 0.10 | 0.00 | 81 | 1012.3 |
| 20260906085138 | 24 | 194 | 0.0 | 3.2 | 0.00 | 0.10 | 0.00 | 81 | 1012.3 |
| 20260906085029 | 24 | 194 | 0.0 | 3.2 | 0.00 | 0.10 | 0.00 | 81 | 1012.2 |
| 20260906084936 | 24 | 194 | 0.0 | 4.8 | 0.00 | 0.10 | 0.00 | 81 | 1012.2 |
| 20260906084844 | 24 | 194 | 0.0 | 6.4 | 0.00 | 0.10 | 0.00 | 82 | 1012.2 |
| 20260906084753 | 24 | 194 | 0.0 | 6.4 | 0.00 | 0.10 | 0.00 | 81 | 1012.2 |
| 20260906084546 | 24 | 194 | 1.6 | 6.4 | 0.00 | 0.10 | 0.00 | 81 | 1012.1 |
| 20260906084435 | 24 | 198 | 0.0 | 6.4 | 0.00 | 0.10 | 0.00 | 81 | 1012.2 |
| 20260906084322 | 24 | 54 | 0.0 | 6.4 | 0.00 | 0.10 | 0.00 | 81 | 1012.1 |
| 20260906084228 | 24 | 54 | 1.6 | 8.0 | 0.00 | 0.10 | 0.00 | 80 | 1012.2 |
| 20260906084136 | 24 | 54 | 3.2 | 8.0 | 0.00 | 0.10 | 0.00 | 80 | 1012.1 |
| 20260906084023 | 24 | 33 | 3.2 | 8.0 | 0.00 | 0.10 | 0.00 | 79 | 1012.1 |
| 20260906083931 | 24 | 20 | 1.6 | 8.0 | 0.00 | 0.10 | 0.00 | 78 | 1012.0 |
| 20260906083822 | 24 | 55 | 0.0 | 8.0 | 0.00 | 0.10 | 0.00 | 78 | 1012.0 |
| 20260906083729 | 24 | 117 | 0.0 | 8.0 | 0.00 | 0.10 | 0.00 | 79 | 1011.8 |
| 20260906083634 | 24 | 142 | 1.6 | 8.0 | 0.00 | 0.10 | 0.00 | 78 | 1011.8 |
| 20260906083520 | 24 | 132 | 3.2 | 12.9 | 0.00 | 0.10 | 0.00 | 78 | 1011.6 |
| 20260906083428 | 24 | 165 | 3.2 | 12.9 | 0.00 | 0.10 | 0.00 | 77 | 1011.7 |
| 20260906083334 | 24 | 174 | 4.8 | 12.9 | 0.00 | 0.10 | 0.00 | 77 | 1011.6 |
| 20260906083309 | 24 | 177 | 4.8 | 12.9 | 0.00 | 0.10 | 0.00 | 77 | 1011.6 |
| 20260906083022 | 24 | 144 | 6.4 | 12.9 | 0.00 | 0.10 | 0.00 | 77 | 1011.4 |
| 20260906082950 | 24 | 142 | 6.4 | 12.9 | 0.00 | 0.10 | 0.00 | 77 | 1011.4 |
| 20260906082836 | 24 | 119 | 6.4 | 12.9 | 0.00 | 0.10 | 0.00 | 77 | 1011.4 |
| 20260906082728 | 24 | 145 | 8.0 | 12.9 | 0.00 | 0.10 | 0.00 | 77 | 1011.4 |
| 20260906082636 | 24 | 142 | 6.4 | 11.3 | 0.00 | 0.10 | 0.00 | 77 | 1011.4 |
| 20260906082523 | 24 | 174 | 4.8 | 6.4 | 0.00 | 0.10 | 0.00 | 77 | 1011.5 |
| 20260906082431 | 24 | 150 | 4.8 | 6.4 | 0.00 | 0.10 | 0.00 | 78 | 1011.6 |
| 20260906082337 | 24 | 182 | 3.2 | 8.0 | 0.00 | 0.10 | 0.00 | 78 | 1011.5 |
| 20260906082225 | 24 | 151 | 3.2 | 9.7 | 0.00 | 0.10 | 0.00 | 78 | 1011.5 |
| 20260906082136 | 24 | 174 | 3.2 | 12.9 | 0.00 | 0.10 | 0.00 | 77 | 1011.5 |
| 20260906082021 | 24 | 215 | 1.6 | 12.9 | 0.00 | 0.10 | 0.00 | 77 | 1011.5 |
| 20260906081928 | 24 | 184 | 3.2 | 12.9 | 0.00 | 0.10 | 0.00 | 77 | 1011.5 |
| 20260906081834 | 24 | 168 | 1.6 | 12.9 | 0.00 | 0.10 | 0.00 | 78 | 1011.6 |
| 20260906081804 | 24 | 129 | 1.6 | 12.9 | 0.00 | 0.10 | 0.00 | 78 | 1011.6 |
| 20260906081520 | 24 | 191 | 4.8 | 14.5 | 0.00 | 0.10 | 0.00 | 78 | 1011.7 |
| 20260906081426 | 24 | 147 | 6.4 | 14.5 | 0.00 | 0.10 | 0.00 | 77 | 1011.8 |
| 20260906081334 | 24 | 120 | 6.4 | 14.5 | 0.00 | 0.10 | 0.00 | 78 | 1011.9 |
| 20260906081221 | 24 | 127 | 6.4 | 14.5 | 0.00 | 0.10 | 0.00 | 78 | 1012.0 |
| 20260906081128 | 24 | 128 | 8.0 | 14.5 | 0.00 | 0.10 | 0.00 | 78 | 1012.0 |
| 20260906081020 | 24 | 115 | 6.4 | 14.5 | 0.00 | 0.10 | 0.00 | 78 | 1012.0 |
| 20260906080928 | 24 | 123 | 4.8 | 16.1 | 0.00 | 0.10 | 0.00 | 78 | 1012.0 |
| 20260906080834 | 24 | 83 | 6.4 | 16.1 | 0.00 | 0.10 | 0.00 | 78 | 1012.1 |
| 20260906080722 | 24 | 102 | 8.0 | 16.1 | 0.00 | 0.10 | 0.00 | 78 | 1012.1 |
| 20260906080630 | 24 | 95 | 8.0 | 16.1 | 0.00 | 0.10 | 0.00 | 78 | 1012.1 |
| 20260906080520 | 24 | 121 | 6.4 | 16.1 | 0.00 | 0.10 | 0.00 | 79 | 1012.2 |
| 20260906080447 | 24 | 117 | 6.4 | 16.1 | 0.00 | 0.10 | 0.00 | 79 | 1012.2 |
| 20260906080415 | 24 | 71 | 6.4 | 17.7 | 0.00 | 0.10 | 0.00 | 79 | 1012.2 |
| 20260906080324 | 24 | 102 | 6.4 | 20.9 | 0.00 | 0.10 | 0.00 | 79 | 1012.3 |
| 20260906080035 | 24 | 67 | 8.0 | 24.1 | 0.00 | 0.10 | 0.00 | 79 | 1012.4 |
| 20260906075924 | 24 | 62 | 4.8 | 24.1 | 0.00 | 0.10 | 0.00 | 79 | 1012.5 |
| 20260906075835 | 24 | 81 | 6.4 | 25.7 | 0.00 | 0.10 | 0.00 | 79 | 1012.5 |
| 20260906075720 | 24 | 82 | 8.0 | 25.7 | 0.00 | 0.10 | 0.00 | 79 | 1012.6 |
| 20260906075627 | 24 | 24 | 11.3 | 25.7 | 0.00 | 0.10 | 0.00 | 79 | 1012.5 |
| 20260906075533 | 24 | 20 | 12.9 | 25.7 | 0.00 | 0.10 | 0.00 | 79 | 1012.5 |
| 20260906075419 | 24 | 80 | 9.7 | 25.7 | 0.00 | 0.10 | 0.00 | 80 | 1012.5 |
| 20260906075330 | 24 | 51 | 12.9 | 25.7 | 0.00 | 0.10 | 0.00 | 80 | 1012.4 |
| 20260906075218 | 24 | 186 | 17.7 | 25.7 | 0.00 | 0.10 | 0.00 | 79 | 1012.4 |
| 20260906075126 | 25 | 59 | 17.7 | 25.7 | 0.00 | 0.10 | 0.00 | 79 | 1012.4 |
| 20260906075033 | 25 | 70 | 16.1 | 25.7 | 0.00 | 0.10 | 0.00 | 79 | 1012.5 |
| 20260906074920 | 25 | 57 | 12.9 | 25.7 | 0.00 | 0.10 | 0.00 | 79 | 1012.5 |
| 20260906074847 | 25 | 69 | 11.3 | 24.1 | 0.00 | 0.10 | 0.00 | 79 | 1012.6 |
| 20260906074801 | 25 | 89 | 12.9 | 24.1 | 0.00 | 0.10 | 0.00 | 79 | 1012.6 |
| 20260906074534 | 25 | 106 | 11.3 | 24.1 | 0.00 | 0.10 | 0.00 | 78 | 1012.7 |
| 20260906074421 | 25 | 38 | 12.9 | 24.1 | 0.00 | 0.10 | 0.00 | 78 | 1012.8 |
| 20260906074330 | 25 | 69 | 12.9 | 25.7 | 0.00 | 0.10 | 0.00 | 77 | 1012.8 |
| 20260906074258 | 25 | 5 | 12.9 | 25.7 | 0.00 | 0.10 | 0.00 | 77 | 1012.8 |
| 20260906074128 | 25 | 84 | 14.5 | 30.6 | 0.00 | 0.10 | 0.00 | 77 | 1012.9 |
| 20260906074055 | 25 | 84 | 16.1 | 30.6 | 0.00 | 0.10 | 0.00 | 76 | 1012.8 |
| 20260906073919 | 25 | 55 | 12.9 | 30.6 | 0.00 | 0.10 | 0.00 | 76 | 1012.9 |
| 20260906073825 | 25 | 5 | 12.9 | 33.8 | 0.00 | 0.10 | 0.00 | 76 | 1013.0 |
| 20260906073733 | 25 | 90 | 14.5 | 33.8 | 0.00 | 0.10 | 0.00 | 76 | 1013.0 |
| 20260906073620 | 25 | 88 | 16.1 | 40.2 | 0.00 | 0.10 | 0.00 | 75 | 1013.0 |
| 20260906073531 | 26 | 63 | 17.7 | 40.2 | 0.00 | 0.10 | 0.00 | 76 | 1013.0 |
| 20260906073440 | 26 | 351 | 17.7 | 40.2 | 0.00 | 0.10 | 0.00 | 75 | 1013.0 |
| 20260906073406 | 26 | 58 | 20.9 | 40.2 | 0.00 | 0.10 | 0.00 | 76 | 1013.0 |
| 20260906073316 | 26 | 43 | 22.5 | 40.2 | 0.00 | 0.10 | 0.00 | 77 | 1013.0 |
| 20260906073029 | 26 | 44 | 22.5 | 40.2 | 0.00 | 0.10 | 0.00 | 77 | 1013.1 |
| 20260906072940 | 26 | 88 | 20.9 | 40.2 | 0.00 | 0.10 | 0.00 | 77 | 1013.1 |
| 20260906072826 | 26 | 355 | 24.1 | 40.2 | 0.00 | 0.10 | 0.00 | 77 | 1013.1 |
| 20260906072733 | 26 | 82 | 25.7 | 40.2 | 0.00 | 0.10 | 0.00 | 77 | 1013.2 |
| 20260906072640 | 26 | 41 | 19.3 | 35.4 | 0.00 | 0.10 | 0.00 | 77 | 1013.3 |
| 20260906072526 | 26 | 28 | 16.1 | 35.4 | 0.00 | 0.10 | 0.00 | 77 | 1013.4 |
| 20260906072452 | 26 | 63 | 17.7 | 35.4 | 0.00 | 0.10 | 0.00 | 77 | 1013.3 |
| 20260906072336 | 26 | 31 | 19.3 | 35.4 | 0.00 | 0.10 | 0.00 | 77 | 1013.3 |
| 20260906072227 | 26 | 30 | 22.5 | 35.4 | 0.00 | 0.10 | 0.00 | 78 | 1013.3 |
| 20260906072154 | 26 | 30 | 20.9 | 35.4 | 0.00 | 0.10 | 0.00 | 78 | 1013.3 |
| 20260906072021 | 26 | 44 | 17.7 | 35.4 | 0.00 | 0.10 | 0.00 | 78 | 1013.3 |
| 20260906071928 | 26 | 71 | 19.3 | 32.2 | 0.00 | 0.10 | 0.00 | 78 | 1013.4 |
| 20260906071835 | 26 | 28 | 20.9 | 32.2 | 0.00 | 0.10 | 0.00 | 78 | 1013.4 |
| 20260906071811 | 26 | 41 | 20.9 | 32.2 | 0.00 | 0.10 | 0.00 | 79 | 1013.4 |
| 20260906071523 | 26 | 5 | 19.3 | 32.2 | 0.00 | 0.10 | 0.00 | 79 | 1013.4 |
| 20260906071450 | 26 | 24 | 20.9 | 32.2 | 0.00 | 0.10 | 0.00 | 79 | 1013.5 |
| 20260906071335 | 26 | 54 | 22.5 | 32.2 | 0.00 | 0.10 | 0.00 | 79 | 1013.4 |
| 20260906071222 | 26 | 30 | 20.9 | 29.0 | 0.00 | 0.10 | 0.00 | 80 | 1013.4 |
| 20260906071127 | 26 | 23 | 17.7 | 29.0 | 0.00 | 0.10 | 0.00 | 80 | 1013.4 |
| 20260906071018 | 26 | 47 | 14.5 | 35.4 | 0.00 | 0.10 | 0.00 | 80 | 1013.5 |
| 20260906070925 | 26 | 31 | 16.1 | 40.2 | 0.00 | 0.10 | 0.00 | 80 | 1013.5 |
| 20260906070853 | 26 | 17 | 17.7 | 40.2 | 0.00 | 0.10 | 0.00 | 80 | 1013.5 |
| 20260906070718 | 26 | 13 | 20.9 | 40.2 | 0.00 | 0.10 | 0.00 | 80 | 1013.4 |
| 20260906070626 | 26 | 28 | 20.9 | 40.2 | 0.00 | 0.10 | 0.00 | 80 | 1013.5 |
| 20260906070553 | 26 | 5 | 17.7 | 40.2 | 0.00 | 0.10 | 0.00 | 80 | 1013.3 |
| 20260906070424 | 26 | 21 | 20.9 | 40.2 | 0.00 | 0.10 | 0.00 | 79 | 1013.1 |
| 20260906070331 | 26 | 33 | 27.4 | 40.2 | 0.00 | 0.10 | 0.00 | 79 | 1013.2 |
| 20260906070302 | 26 | 35 | 25.7 | 40.2 | 0.00 | 0.10 | 0.00 | 79 | 1013.2 |
| 20260906070037 | 26 | 355 | 25.7 | 38.6 | 0.00 | 0.10 | 0.00 | 79 | 1013.1 |
| 20260906065928 | 26 | 346 | 22.5 | 33.8 | 0.00 | 0.10 | 0.00 | 78 | 1013.2 |
| 20260906065837 | 26 | 20 | 17.7 | 27.4 | 0.00 | 0.10 | 0.00 | 78 | 1013.2 |
| 20260906065723 | 26 | 355 | 11.3 | 17.7 | 0.00 | 0.10 | 0.00 | 78 | 1013.1 |
| 20260906065631 | 26 | 350 | 9.7 | 14.5 | 0.00 | 0.10 | 0.00 | 78 | 1013.0 |
| 20260906065518 | 26 | 12 | 8.0 | 12.9 | 0.00 | 0.10 | 0.00 | 78 | 1012.9 |
| 20260906065426 | 26 | 27 | 6.4 | 11.3 | 0.00 | 0.10 | 0.00 | 78 | 1012.8 |
| 20260906065337 | 26 | 47 | 4.8 | 11.3 | 0.00 | 0.10 | 0.00 | 78 | 1012.7 |
| 20260906065223 | 26 | 5 | 3.2 | 11.3 | 0.00 | 0.10 | 0.00 | 78 | 1012.6 |
| 20260906065131 | 26 | 334 | 3.2 | 11.3 | 0.00 | 0.10 | 0.00 | 78 | 1012.4 |
| 20260906065038 | 26 | 306 | 4.8 | 11.3 | 0.00 | 0.10 | 0.00 | 78 | 1012.5 |
| 20260906064925 | 26 | 321 | 6.4 | 11.3 | 0.00 | 0.10 | 0.00 | 78 | 1012.5 |
| 20260906064836 | 26 | 333 | 8.0 | 11.3 | 0.00 | 0.10 | 0.00 | 78 | 1012.6 |
| 20260906064806 | 26 | 20 | 8.0 | 14.5 | 0.00 | 0.10 | 0.00 | 78 | 1012.6 |
| 20260906064519 | 26 | 38 | 6.4 | 16.1 | 0.00 | 0.10 | 0.00 | 78 | 1012.6 |
| 20260906064424 | 26 | 54 | 6.4 | 16.1 | 0.00 | 0.10 | 0.00 | 78 | 1012.5 |
| 20260906064351 | 26 | 23 | 6.4 | 16.1 | 0.00 | 0.10 | 0.00 | 78 | 1012.4 |
| 20260906064222 | 26 | 317 | 4.8 | 16.1 | 0.00 | 0.10 | 0.00 | 79 | 1012.3 |
| 20260906064128 | 26 | 338 | 4.8 | 16.1 | 0.00 | 0.10 | 0.00 | 79 | 1012.5 |
| 20260906064034 | 26 | 69 | 3.2 | 16.1 | 0.00 | 0.10 | 0.00 | 79 | 1012.6 |
| 20260906063942 | 26 | 74 | 6.4 | 16.1 | 0.00 | 0.10 | 0.00 | 78 | 1012.5 |
| 20260906063827 | 26 | 52 | 9.7 | 16.1 | 0.00 | 0.10 | 0.00 | 78 | 1012.6 |
| 20260906063733 | 26 | 48 | 9.7 | 16.1 | 0.00 | 0.10 | 0.00 | 79 | 1012.5 |
| 20260906063645 | 26 | 52 | 8.0 | 12.9 | 0.00 | 0.10 | 0.00 | 79 | 1012.4 |
| 20260906063530 | 26 | 28 | 8.0 | 9.7 | 0.00 | 0.10 | 0.00 | 79 | 1012.4 |
| 20260906063437 | 26 | 32 | 6.4 | 9.7 | 0.00 | 0.10 | 0.00 | 79 | 1012.4 |
| 20260906063343 | 26 | 42 | 4.8 | 22.5 | 0.00 | 0.10 | 0.00 | 79 | 1012.4 |
| 20260906063252 | 26 | 35 | 3.2 | 22.5 | 0.00 | 0.10 | 0.00 | 79 | 1012.4 |
| 20260906063029 | 26 | 47 | 3.2 | 22.5 | 0.00 | 0.10 | 0.00 | 79 | 1012.5 |
| 20260906062936 | 26 | 55 | 3.2 | 22.5 | 0.00 | 0.10 | 0.00 | 79 | 1012.4 |
| 20260906062823 | 26 | 5 | 8.0 | 22.5 | 0.00 | 0.10 | 0.00 | 79 | 1012.3 |
| 20260906062729 | 26 | 5 | 8.0 | 22.5 | 0.00 | 0.10 | 0.00 | 79 | 1012.3 |
| 20260906062637 | 26 | 26 | 8.0 | 22.5 | 0.00 | 0.10 | 0.00 | 80 | 1012.3 |
| 20260906062523 | 26 | 5 | 11.3 | 22.5 | 0.00 | 0.10 | 0.00 | 80 | 1012.2 |
| 20260906062436 | 26 | 9 | 12.9 | 22.5 | 0.00 | 0.10 | 0.00 | 79 | 1012.2 |
| 20260906062323 | 26 | 5 | 11.3 | 14.5 | 0.00 | 0.10 | 0.00 | 80 | 1012.3 |
| 20260906062231 | 26 | 355 | 9.7 | 14.5 | 0.00 | 0.10 | 0.00 | 81 | 1012.3 |
| 20260906062137 | 26 | 17 | 8.0 | 14.5 | 0.00 | 0.10 | 0.00 | 81 | 1012.3 |
| 20260906062023 | 26 | 13 | 8.0 | 9.7 | 0.00 | 0.10 | 0.00 | 81 | 1012.4 |
| 20260906061930 | 26 | 35 | 4.8 | 9.7 | 0.00 | 0.10 | 0.00 | 81 | 1012.4 |
| 20260906061901 | 26 | 36 | 3.2 | 8.0 | 0.00 | 0.10 | 0.00 | 81 | 1012.4 |
| 20260906061831 | 26 | 36 | 0.0 | 11.3 | 0.00 | 0.10 | 0.00 | 80 | 1012.4 |
| 20260906061544 | 27 | 280 | 1.6 | 11.3 | 0.00 | 0.10 | 0.00 | 81 | 1012.2 |
| 20260906061429 | 27 | 280 | 1.6 | 11.3 | 0.00 | 0.10 | 0.00 | 81 | 1012.2 |
| 20260906061336 | 27 | 297 | 3.2 | 11.3 | 0.00 | 0.10 | 0.00 | 81 | 1012.2 |
| 20260906061226 | 27 | 232 | 3.2 | 11.3 | 0.00 | 0.10 | 0.00 | 81 | 1012.1 |
| 20260906061132 | 26 | 268 | 4.8 | 11.3 | 0.00 | 0.10 | 0.00 | 80 | 1012.1 |
| 20260906061018 | 26 | 260 | 4.8 | 11.3 | 0.00 | 0.10 | 0.00 | 81 | 1012.1 |
| 20260906060925 | 26 | 215 | 3.2 | 9.7 | 0.00 | 0.10 | 0.00 | 80 | 1012.1 |
| 20260906060831 | 26 | 231 | 3.2 | 11.3 | 0.00 | 0.10 | 0.00 | 80 | 1012.1 |
| 20260906060722 | 26 | 211 | 4.8 | 11.3 | 0.00 | 0.10 | 0.00 | 80 | 1012.0 |
| 20260906060629 | 26 | 227 | 6.4 | 11.3 | 0.00 | 0.10 | 0.00 | 80 | 1012.1 |
| 20260906060536 | 26 | 215 | 6.4 | 11.3 | 0.00 | 0.10 | 0.00 | 80 | 1012.1 |
| 20260906060424 | 26 | 209 | 6.4 | 11.3 | 0.00 | 0.10 | 0.00 | 80 | 1012.1 |
| 20260906060350 | 26 | 205 | 6.4 | 11.3 | 0.00 | 0.10 | 0.00 | 80 | 1012.1 |
| 20260906060324 | 26 | 180 | 8.0 | 11.3 | 0.00 | 0.10 | 0.00 | 81 | 1012.1 |
| 20260906060056 | 26 | 207 | 8.0 | 11.3 | 0.00 | 0.10 | 0.00 | 81 | 1012.1 |
| 20260906055921 | 26 | 192 | 6.4 | 11.3 | 0.00 | 0.10 | 0.00 | 81 | 1012.2 |
| 20260906055829 | 26 | 196 | 4.8 | 11.3 | 0.00 | 0.10 | 0.00 | 81 | 1012.1 |
| 20260906055756 | 26 | 190 | 6.4 | 9.7 | 0.00 | 0.10 | 0.00 | 81 | 1012.0 |
| 20260906055621 | 26 | 182 | 4.8 | 9.7 | 0.00 | 0.10 | 0.00 | 81 | 1012.1 |
| 20260906055528 | 26 | 184 | 4.8 | 12.9 | 0.00 | 0.10 | 0.00 | 81 | 1012.1 |
| 20260906055420 | 26 | 175 | 4.8 | 12.9 | 0.00 | 0.10 | 0.00 | 81 | 1012.1 |
| 20260906055327 | 26 | 197 | 6.4 | 12.9 | 0.00 | 0.10 | 0.00 | 81 | 1012.1 |
| 20260906055233 | 26 | 174 | 6.4 | 12.9 | 0.00 | 0.10 | 0.00 | 81 | 1012.0 |
| 20260906055120 | 26 | 194 | 6.4 | 14.5 | 0.00 | 0.10 | 0.00 | 81 | 1012.2 |
| 20260906055026 | 26 | 198 | 6.4 | 14.5 | 0.00 | 0.10 | 0.00 | 81 | 1012.1 |
| 20260906054953 | 26 | 178 | 6.4 | 14.5 | 0.00 | 0.10 | 0.00 | 81 | 1012.1 |
| 20260906054822 | 26 | 145 | 6.4 | 14.5 | 0.00 | 0.10 | 0.00 | 82 | 1012.2 |
| 20260906054753 | 26 | 192 | 8.0 | 14.5 | 0.00 | 0.10 | 0.00 | 82 | 1012.2 |
| 20260906054527 | 26 | 199 | 8.0 | 14.5 | 0.00 | 0.10 | 0.00 | 82 | 1012.3 |
| 20260906054434 | 26 | 202 | 9.7 | 14.5 | 0.00 | 0.10 | 0.10 | 82 | 1012.4 |
| 20260906054325 | 26 | 182 | 9.7 | 14.5 | 0.00 | 0.10 | 0.10 | 82 | 1012.3 |
| 20260906054232 | 26 | 204 | 6.4 | 11.3 | 0.00 | 0.10 | 0.10 | 82 | 1012.3 |
| 20260906054138 | 26 | 217 | 4.8 | 11.3 | 0.00 | 0.10 | 0.10 | 82 | 1012.2 |
| 20260906054024 | 26 | 171 | 4.8 | 11.3 | 0.00 | 0.10 | 0.10 | 83 | 1012.2 |
| 20260906053931 | 26 | 161 | 4.8 | 11.3 | 0.00 | 0.10 | 0.10 | 83 | 1012.2 |
| 20260906053823 | 26 | 190 | 4.8 | 11.3 | 0.00 | 0.10 | 0.10 | 83 | 1012.2 |
| 20260906053728 | 26 | 145 | 4.8 | 11.3 | 0.00 | 0.10 | 0.10 | 83 | 1012.2 |
| 20260906053634 | 26 | 167 | 4.8 | 12.9 | 0.00 | 0.10 | 0.10 | 83 | 1012.2 |
| 20260906053521 | 26 | 206 | 4.8 | 12.9 | 0.00 | 0.10 | 0.10 | 83 | 1012.2 |
| 20260906053449 | 26 | 194 | 6.4 | 12.9 | 0.00 | 0.10 | 0.10 | 83 | 1012.3 |
| 20260906053333 | 26 | 178 | 4.8 | 12.9 | 0.00 | 0.10 | 0.10 | 83 | 1012.2 |
| 20260906053307 | 26 | 170 | 4.8 | 12.9 | 0.00 | 0.10 | 0.10 | 83 | 1012.2 |
| 20260906053018 | 26 | 138 | 6.4 | 19.3 | 0.00 | 0.10 | 0.10 | 83 | 1012.2 |
| 20260906052925 | 26 | 133 | 8.0 | 19.3 | 0.00 | 0.10 | 0.10 | 83 | 1012.2 |
| 20260906052830 | 26 | 142 | 9.7 | 19.3 | 0.00 | 0.10 | 0.10 | 83 | 1012.2 |
| 20260906052738 | 26 | 154 | 6.4 | 19.3 | 0.00 | 0.10 | 0.10 | 83 | 1012.3 |
| 20260906052629 | 26 | 125 | 8.0 | 19.3 | 0.00 | 0.10 | 0.10 | 83 | 1012.3 |
| 20260906052538 | 26 | 112 | 9.7 | 19.3 | 0.00 | 0.10 | 0.10 | 83 | 1012.4 |
| 20260906052424 | 26 | 103 | 9.7 | 19.3 | 0.00 | 0.10 | 0.10 | 83 | 1012.3 |
| 20260906052332 | 26 | 42 | 11.3 | 19.3 | 0.00 | 0.10 | 0.10 | 84 | 1012.3 |
| 20260906052240 | 26 | 109 | 12.9 | 19.3 | 0.00 | 0.10 | 0.10 | 84 | 1012.3 |
| 20260906052125 | 26 | 84 | 11.3 | 19.3 | 0.00 | 0.10 | 0.10 | 84 | 1012.3 |
| 20260906052051 | 26 | 96 | 8.0 | 17.7 | 0.00 | 0.10 | 0.10 | 85 | 1012.3 |
| 20260906051941 | 26 | 109 | 4.8 | 9.7 | 0.00 | 0.10 | 0.10 | 85 | 1012.3 |
| 20260906051827 | 26 | 113 | 4.8 | 9.7 | 0.00 | 0.10 | 0.10 | 85 | 1012.2 |
| 20260906051758 | 26 | 111 | 3.2 | 6.4 | 0.00 | 0.10 | 0.10 | 85 | 1012.2 |
| 20260906051532 | 25 | 128 | 1.6 | 4.8 | 0.00 | 0.10 | 0.10 | 84 | 1012.0 |
| 20260906051422 | 25 | 64 | 0.0 | 0.0 | 0.00 | 0.10 | 0.10 | 84 | 1012.0 |
| 20260906051330 | 25 | 64 | 0.0 | 0.0 | 0.00 | 0.10 | 0.10 | 83 | 1012.0 |
| 20260906051257 | 25 | 64 | 0.0 | 0.0 | 0.00 | 0.10 | 0.10 | 83 | 1011.8 |
| 20260906051123 | 26 | 64 | 0.0 | 0.0 | 0.00 | 0.10 | 0.10 | 83 | 1011.8 |
| 20260906051030 | 26 | 64 | 0.0 | 0.0 | 0.00 | 0.10 | 0.10 | 82 | 1011.8 |
| 20260906050936 | 25 | 64 | 0.0 | 0.0 | 0.00 | 0.10 | 0.10 | 83 | 1011.8 |
| 20260906050828 | 26 | 64 | 0.0 | 0.0 | 0.00 | 0.10 | 0.10 | 83 | 1011.7 |
| 20260906050736 | 26 | 64 | 0.0 | 0.0 | 0.00 | 0.10 | 0.10 | 84 | 1011.7 |
| 20260906050642 | 26 | 64 | 0.0 | 0.0 | 0.00 | 0.10 | 0.10 | 84 | 1011.7 |
| 20260906050549 | 26 | 64 | 0.0 | 0.0 | 0.00 | 0.10 | 0.10 | 84 | 1011.6 |
| 20260906050435 | 26 | 64 | 0.0 | 0.0 | 0.00 | 0.10 | 0.10 | 84 | 1011.6 |
| 20260906050323 | 26 | 64 | 0.0 | 0.0 | 0.00 | 0.10 | 0.10 | 84 | 1011.6 |
| 20260906050257 | 26 | 64 | 0.0 | 0.0 | 0.00 | 0.10 | 0.10 | 84 | 1011.6 |
| 20260906050029 | 26 | 64 | 0.0 | 0.0 | 0.00 | 0.10 | 0.10 | 83 | 1011.6 |
| 20260906045937 | 26 | 64 | 0.0 | 0.0 | 0.00 | 0.10 | 0.10 | 83 | 1011.5 |
| 20260906045824 | 26 | 64 | 0.0 | 0.0 | 0.00 | 0.10 | 0.10 | 84 | 1011.6 |
| 20260906045751 | 26 | 64 | 0.0 | 0.0 | 0.00 | 0.10 | 0.10 | 83 | 1011.6 |
| 20260906045619 | 26 | 64 | 0.0 | 0.0 | 0.00 | 0.10 | 0.10 | 83 | 1011.7 |
| 20260906045527 | 26 | 64 | 0.0 | 0.0 | 0.00 | 0.10 | 0.10 | 83 | 1011.7 |
| 20260906045433 | 26 | 64 | 0.0 | 0.0 | 0.00 | 0.10 | 0.10 | 83 | 1011.6 |
| 20260906045321 | 26 | 64 | 0.0 | 0.0 | 0.00 | 0.10 | 0.10 | 83 | 1011.8 |
| 20260906045227 | 26 | 64 | 0.0 | 0.0 | 0.00 | 0.10 | 0.10 | 83 | 1011.7 |
| 20260906045134 | 26 | 64 | 0.0 | 0.0 | 0.00 | 0.10 | 0.10 | 83 | 1011.8 |
| 20260906045046 | 26 | 64 | 0.0 | 0.0 | 0.00 | 0.10 | 0.10 | 83 | 1011.8 |
| 20260906044932 | 26 | 64 | 0.0 | 0.0 | 0.00 | 0.10 | 0.10 | 82 | 1011.8 |
| 20260906044810 | 26 | 64 | 0.0 | 0.0 | 0.00 | 0.10 | 0.10 | 82 | 1012.0 |
| 20260906044523 | 26 | 64 | 0.0 | 0.0 | 0.00 | 0.10 | 0.10 | 83 | 1012.1 |
| 20260906044434 | 26 | 64 | 0.0 | 0.0 | 0.00 | 0.10 | 0.10 | 83 | 1012.0 |
| 20260906044319 | 26 | 64 | 0.0 | 0.0 | 0.00 | 0.10 | 0.10 | 83 | 1012.1 |
| 20260906044228 | 26 | 64 | 0.0 | 0.0 | 0.00 | 0.10 | 0.10 | 83 | 1012.1 |
| 20260906044135 | 26 | 64 | 0.0 | 0.0 | 0.00 | 0.10 | 0.10 | 83 | 1012.1 |
| 20260906044022 | 26 | 64 | 0.0 | 0.0 | 0.00 | 0.10 | 0.10 | 83 | 1012.0 |
| 20260906043933 | 26 | 64 | 0.0 | 0.0 | 0.00 | 0.10 | 0.10 | 83 | 1012.1 |
| 20260906043820 | 26 | 64 | 0.0 | 0.0 | 0.00 | 0.10 | 0.10 | 83 | 1012.1 |
| 20260906043748 | 26 | 64 | 0.0 | 0.0 | 0.00 | 0.10 | 0.10 | 83 | 1012.1 |
| 20260906043655 | 26 | 64 | 0.0 | 0.0 | 0.00 | 0.10 | 0.10 | 83 | 1012.1 |
| 20260906043520 | 26 | 64 | 0.0 | 0.0 | 0.00 | 0.10 | 0.10 | 83 | 1012.1 |
| 20260906043427 | 26 | 64 | 0.0 | 0.0 | 0.00 | 0.10 | 0.10 | 83 | 1012.2 |
| 20260906043335 | 26 | 64 | 0.0 | 0.0 | 0.00 | 0.10 | 0.10 | 83 | 1012.2 |
| 20260906043309 | 26 | 64 | 0.0 | 0.0 | 0.00 | 0.10 | 0.10 | 82 | 1012.2 |
| 20260906043023 | 26 | 64 | 0.0 | 0.0 | 0.00 | 0.10 | 0.10 | 83 | 1012.2 |
| 20260906042930 | 26 | 64 | 0.0 | 0.0 | 0.00 | 0.10 | 0.10 | 83 | 1012.3 |
| 20260906042837 | 26 | 64 | 0.0 | 0.0 | 0.00 | 0.10 | 0.10 | 83 | 1012.2 |
| 20260906042750 | 26 | 64 | 0.0 | 0.0 | 0.00 | 0.10 | 0.10 | 83 | 1012.2 |
| 20260906042635 | 26 | 64 | 0.0 | 0.0 | 0.00 | 0.10 | 0.10 | 83 | 1012.2 |
| 20260906042521 | 26 | 64 | 0.0 | 0.0 | 0.00 | 0.10 | 0.10 | 82 | 1012.2 |
| 20260906042429 | 26 | 64 | 0.0 | 0.0 | 0.00 | 0.10 | 0.10 | 82 | 1012.1 |
| 20260906042337 | 26 | 64 | 0.0 | 0.0 | 0.00 | 0.10 | 0.10 | 82 | 1012.2 |
| 20260906042222 | 26 | 64 | 0.0 | 0.0 | 0.00 | 0.10 | 0.10 | 82 | 1012.2 |
| 20260906042134 | 26 | 64 | 0.0 | 0.0 | 0.00 | 0.10 | 0.10 | 82 | 1012.3 |
| 20260906042022 | 26 | 64 | 0.0 | 0.0 | 0.00 | 0.10 | 0.10 | 83 | 1012.2 |
| 20260906041928 | 26 | 64 | 0.0 | 0.0 | 0.00 | 0.10 | 0.10 | 83 | 1012.3 |
| 20260906041811 | 26 | 64 | 0.0 | 0.0 | 0.00 | 0.10 | 0.10 | 83 | 1012.3 |
| 20260906041524 | 26 | 64 | 0.0 | 0.0 | 0.00 | 0.10 | 0.10 | 83 | 1012.3 |
| 20260906041431 | 26 | 64 | 0.0 | 0.0 | 0.00 | 0.10 | 0.10 | 83 | 1012.2 |
| 20260906041319 | 26 | 64 | 0.0 | 0.0 | 0.00 | 0.10 | 0.10 | 83 | 1012.2 |
| 20260906041245 | 26 | 64 | 0.0 | 0.0 | 0.00 | 0.10 | 0.10 | 83 | 1012.2 |
| 20260906041132 | 26 | 64 | 0.0 | 0.0 | 0.00 | 0.10 | 0.10 | 82 | 1012.3 |
| 20260906041045 | 26 | 64 | 0.0 | 0.0 | 0.00 | 0.10 | 0.10 | 82 | 1012.2 |
| 20260906040931 | 26 | 64 | 0.0 | 0.0 | 0.00 | 0.10 | 0.10 | 82 | 1012.2 |
| 20260906040819 | 26 | 64 | 0.0 | 0.0 | 0.00 | 0.10 | 0.10 | 82 | 1012.2 |
| 20260906040725 | 26 | 64 | 0.0 | 0.0 | 0.00 | 0.10 | 0.10 | 82 | 1012.1 |
| 20260906040632 | 26 | 64 | 0.0 | 0.0 | 0.00 | 0.10 | 0.10 | 82 | 1012.2 |
| 20260906040519 | 26 | 64 | 0.0 | 0.0 | 0.00 | 0.10 | 0.10 | 82 | 1012.2 |
| 20260906040432 | 26 | 64 | 0.0 | 0.0 | 0.00 | 0.10 | 0.10 | 82 | 1012.1 |
| 20260906040308 | 26 | 64 | 0.0 | 0.0 | 0.00 | 0.10 | 0.10 | 82 | 1012.2 |
| 20260906040021 | 26 | 64 | 0.0 | 0.0 | 0.00 | 0.10 | 0.10 | 82 | 1012.2 |
| 20260906035928 | 26 | 64 | 0.0 | 1.6 | 0.00 | 0.10 | 0.10 | 82 | 1012.2 |
| 20260906035819 | 26 | 64 | 0.0 | 3.2 | 0.00 | 0.10 | 0.10 | 82 | 1012.1 |
| 20260906035746 | 26 | 64 | 0.0 | 3.2 | 0.00 | 0.10 | 0.10 | 82 | 1012.1 |
| 20260906035632 | 26 | 64 | 0.0 | 3.2 | 0.00 | 0.10 | 0.10 | 82 | 1012.1 |
| 20260906035559 | 26 | 64 | 0.0 | 3.2 | 0.00 | 0.10 | 0.10 | 82 | 1012.1 |
| 20260906035424 | 26 | 64 | 0.0 | 3.2 | 0.00 | 0.10 | 0.10 | 82 | 1012.1 |
| 20260906035330 | 26 | 64 | 0.0 | 3.2 | 0.00 | 0.10 | 0.10 | 82 | 1012.1 |
| 20260906035221 | 26 | 64 | 0.0 | 3.2 | 0.00 | 0.10 | 0.10 | 82 | 1012.2 |
| 20260906035129 | 26 | 64 | 1.6 | 3.2 | 0.00 | 0.10 | 0.10 | 81 | 1012.2 |
| 20260906035032 | 26 | 64 | 0.0 | 3.2 | 0.00 | 0.10 | 0.10 | 82 | 1012.3 |
| 20260906034920 | 26 | 64 | 0.0 | 1.6 | 0.00 | 0.10 | 0.10 | 83 | 1012.3 |
| 20260906034803 | 26 | 145 | 0.0 | 1.6 | 0.00 | 0.10 | 0.10 | 83 | 1012.2 |
| 20260906034537 | 26 | 145 | 0.0 | 0.0 | 0.00 | 0.10 | 0.10 | 83 | 1012.2 |
| 20260906034422 | 26 | 145 | 0.0 | 0.0 | 0.00 | 0.10 | 0.10 | 83 | 1012.2 |
| 20260906034331 | 26 | 145 | 0.0 | 0.0 | 0.00 | 0.10 | 0.10 | 83 | 1012.2 |
| 20260906034238 | 26 | 145 | 0.0 | 1.6 | 0.00 | 0.10 | 0.10 | 83 | 1012.1 |
| 20260906034128 | 26 | 145 | 0.0 | 3.2 | 0.00 | 0.10 | 0.10 | 83 | 1012.2 |
| 20260906034035 | 26 | 145 | 0.0 | 3.2 | 0.00 | 0.10 | 0.10 | 83 | 1012.1 |
| 20260906033922 | 26 | 145 | 0.0 | 3.2 | 0.00 | 0.10 | 0.10 | 83 | 1012.2 |
| 20260906033828 | 26 | 145 | 0.0 | 3.2 | 0.00 | 0.10 | 0.10 | 83 | 1012.2 |
| 20260906033734 | 26 | 145 | 0.0 | 3.2 | 0.00 | 0.10 | 0.10 | 84 | 1012.2 |
| 20260906033640 | 26 | 145 | 0.0 | 3.2 | 0.00 | 0.10 | 0.10 | 84 | 1012.1 |
| 20260906033530 | 26 | 145 | 0.0 | 3.2 | 0.00 | 0.10 | 0.10 | 84 | 1012.2 |
| 20260906033436 | 26 | 145 | 0.0 | 3.2 | 0.00 | 0.10 | 0.10 | 84 | 1012.1 |
| 20260906033322 | 26 | 145 | 0.0 | 3.2 | 0.00 | 0.10 | 0.10 | 82 | 1012.1 |
| 20260906033252 | 26 | 145 | 0.0 | 3.2 | 0.00 | 0.10 | 0.10 | 82 | 1012.1 |
| 20260906033030 | 26 | 360 | 0.0 | 0.0 | 0.00 | 0.10 | 0.10 | 81 | 1012.2 |
| 20260906032937 | 26 | 360 | 0.0 | 0.0 | 0.00 | 0.10 | 0.10 | 81 | 1012.2 |
| 20260906032825 | 26 | 360 | 0.0 | 0.0 | 0.00 | 0.10 | 0.10 | 81 | 1012.1 |
| 20260906032731 | 26 | 360 | 0.0 | 0.0 | 0.00 | 0.10 | 0.10 | 81 | 1012.1 |
| 20260906032618 | 26 | 360 | 0.0 | 0.0 | 0.00 | 0.10 | 0.10 | 80 | 1012.1 |
| 20260906032526 | 26 | 360 | 0.0 | 0.0 | 0.00 | 0.10 | 0.10 | 80 | 1012.0 |
| 20260906032456 | 26 | 360 | 0.0 | 0.0 | 0.00 | 0.10 | 0.10 | 81 | 1012.1 |
| 20260906032321 | 26 | 360 | 0.0 | 0.0 | 0.00 | 0.10 | 0.10 | 81 | 1012.0 |
| 20260906032230 | 26 | 360 | 0.0 | 0.0 | 0.00 | 0.10 | 0.10 | 81 | 1011.9 |
| 20260906032159 | 26 | 360 | 0.0 | 0.0 | 0.00 | 0.10 | 0.10 | 81 | 1012.0 |
| 20260906032024 | 26 | 360 | 0.0 | 0.0 | 0.00 | 0.10 | 0.10 | 81 | 1011.9 |
| 20260906031932 | 26 | 360 | 0.0 | 0.0 | 0.00 | 0.10 | 0.10 | 80 | 1012.0 |
| 20260906031824 | 26 | 360 | 0.0 | 0.0 | 0.00 | 0.10 | 0.10 | 80 | 1012.0 |
| 20260906031753 | 26 | 360 | 0.0 | 0.0 | 0.00 | 0.10 | 0.10 | 80 | 1012.0 |
| 20260906031547 | 26 | 360 | 0.0 | 0.0 | 0.00 | 0.10 | 0.10 | 80 | 1012.0 |
| 20260906031452 | 26 | 360 | 0.0 | 0.0 | 0.00 | 0.10 | 0.10 | 80 | 1012.0 |
| 20260906031318 | 26 | 360 | 0.0 | 0.0 | 0.00 | 0.10 | 0.10 | 80 | 1012.0 |
| 20260906031229 | 26 | 360 | 0.0 | 0.0 | 0.00 | 0.10 | 0.10 | 80 | 1012.0 |
| 20260906031137 | 26 | 360 | 0.0 | 0.0 | 0.00 | 0.10 | 0.10 | 80 | 1012.0 |
| 20260906031024 | 26 | 360 | 0.0 | 0.0 | 0.00 | 0.10 | 0.10 | 80 | 1012.0 |
| 20260906030951 | 26 | 360 | 0.0 | 0.0 | 0.00 | 0.10 | 0.10 | 80 | 1012.0 |
| 20260906030836 | 26 | 360 | 0.0 | 0.0 | 0.00 | 0.10 | 0.10 | 81 | 1012.0 |
| 20260906030724 | 26 | 360 | 0.0 | 0.0 | 0.00 | 0.10 | 0.10 | 81 | 1012.0 |
| 20260906030634 | 26 | 360 | 0.0 | 0.0 | 0.00 | 0.10 | 0.10 | 81 | 1012.0 |
| 20260906030541 | 26 | 360 | 0.0 | 0.0 | 0.00 | 0.10 | 0.10 | 80 | 1012.0 |
| 20260906030448 | 26 | 360 | 0.0 | 0.0 | 0.00 | 0.10 | 0.10 | 80 | 1012.0 |
| 20260906030415 | 26 | 360 | 0.0 | 0.0 | 0.00 | 0.10 | 0.10 | 80 | 1012.0 |
| 20260906030323 | 26 | 360 | 0.0 | 0.0 | 0.00 | 0.10 | 0.10 | 80 | 1011.9 |
| 20260906030035 | 26 | 360 | 0.0 | 0.0 | 0.00 | 0.10 | 0.10 | 80 | 1012.1 |
| 20260906025926 | 26 | 360 | 0.0 | 0.0 | 0.00 | 0.10 | 0.10 | 80 | 1012.1 |
| 20260906025832 | 26 | 360 | 0.0 | 0.0 | 0.00 | 0.10 | 0.10 | 81 | 1012.0 |
| 20260906025719 | 26 | 360 | 0.0 | 0.0 | 0.00 | 0.10 | 0.10 | 81 | 1012.1 |
| 20260906025626 | 26 | 360 | 0.0 | 0.0 | 0.00 | 0.10 | 0.10 | 81 | 1012.1 |
| 20260906025533 | 26 | 360 | 0.0 | 0.0 | 0.00 | 0.10 | 0.10 | 81 | 1012.2 |
| 20260906025424 | 26 | 360 | 0.0 | 0.0 | 0.00 | 0.10 | 0.10 | 81 | 1012.1 |
| 20260906025353 | 26 | 360 | 0.0 | 0.0 | 0.00 | 0.10 | 0.10 | 80 | 1012.1 |
| 20260906025219 | 26 | 360 | 0.0 | 0.0 | 0.00 | 0.10 | 0.10 | 80 | 1012.1 |
| 20260906025126 | 26 | 360 | 0.0 | 0.0 | 0.00 | 0.10 | 0.10 | 80 | 1012.1 |
| 20260906025054 | 26 | 360 | 0.0 | 0.0 | 0.00 | 0.10 | 0.10 | 81 | 1012.1 |
| 20260906024919 | 26 | 360 | 0.0 | 1.6 | 0.00 | 0.10 | 0.10 | 81 | 1012.0 |
| 20260906024847 | 26 | 360 | 0.0 | 1.6 | 0.00 | 0.10 | 0.10 | 81 | 1012.0 |
| 20260906024822 | 26 | 360 | 0.0 | 3.2 | 0.00 | 0.10 | 0.10 | 81 | 1012.0 |
| 20260906024535 | 26 | 360 | 0.0 | 3.2 | 0.00 | 0.10 | 0.10 | 81 | 1012.0 |
| 20260906024442 | 26 | 360 | 0.0 | 3.2 | 0.00 | 0.10 | 0.10 | 81 | 1012.0 |
| 20260906024328 | 26 | 360 | 0.0 | 3.2 | 0.00 | 0.10 | 0.10 | 81 | 1012.0 |
| 20260906024235 | 26 | 360 | 0.0 | 3.2 | 0.00 | 0.10 | 0.10 | 81 | 1012.0 |
| 20260906024126 | 26 | 360 | 1.6 | 3.2 | 0.00 | 0.10 | 0.10 | 80 | 1011.9 |
| 20260906024035 | 26 | 360 | 1.6 | 3.2 | 0.00 | 0.10 | 0.10 | 80 | 1011.8 |
| 20260906023922 | 26 | 360 | 1.6 | 3.2 | 0.00 | 0.10 | 0.10 | 80 | 1011.8 |
| 20260906023849 | 26 | 360 | 1.6 | 3.2 | 0.00 | 0.10 | 0.10 | 80 | 1011.8 |
| 20260906023733 | 26 | 360 | 1.6 | 3.2 | 0.00 | 0.10 | 0.10 | 80 | 1011.7 |
| 20260906023620 | 26 | 360 | 1.6 | 3.2 | 0.00 | 0.10 | 0.10 | 80 | 1011.7 |
| 20260906023531 | 26 | 360 | 1.6 | 3.2 | 0.00 | 0.10 | 0.10 | 80 | 1011.6 |
| 20260906023438 | 26 | 360 | 1.6 | 4.8 | 0.00 | 0.10 | 0.10 | 80 | 1011.7 |
| 20260906023345 | 26 | 360 | 0.0 | 4.8 | 0.00 | 0.10 | 0.10 | 80 | 1011.7 |
| 20260906023255 | 26 | 360 | 0.0 | 4.8 | 0.00 | 0.10 | 0.10 | 80 | 1011.7 |
| 20260906023028 | 26 | 360 | 0.0 | 4.8 | 0.00 | 0.10 | 0.10 | 80 | 1011.7 |
| 20260906022920 | 26 | 360 | 0.0 | 4.8 | 0.00 | 0.10 | 0.10 | 80 | 1011.6 |
| 20260906022847 | 26 | 360 | 0.0 | 4.8 | 0.00 | 0.10 | 0.10 | 80 | 1011.6 |
| 20260906022734 | 26 | 360 | 1.6 | 4.8 | 0.00 | 0.10 | 0.10 | 79 | 1011.7 |
| 20260906022621 | 26 | 360 | 1.6 | 4.8 | 0.00 | 0.10 | 0.10 | 79 | 1011.6 |
| 20260906022527 | 26 | 360 | 0.0 | 4.8 | 0.00 | 0.10 | 0.10 | 78 | 1011.5 |
| 20260906022419 | 26 | 360 | 1.6 | 4.8 | 0.00 | 0.10 | 0.10 | 79 | 1011.4 |
| 20260906022326 | 26 | 360 | 1.6 | 4.8 | 0.00 | 0.10 | 0.10 | 79 | 1011.5 |
| 20260906022233 | 26 | 360 | 3.2 | 4.8 | 0.00 | 0.10 | 0.10 | 79 | 1011.5 |
| 20260906022141 | 26 | 360 | 3.2 | 4.8 | 0.00 | 0.10 | 0.10 | 79 | 1011.4 |
| 20260906022026 | 26 | 360 | 3.2 | 4.8 | 0.00 | 0.10 | 0.10 | 79 | 1011.4 |
| 20260906021933 | 26 | 360 | 3.2 | 4.8 | 0.00 | 0.10 | 0.10 | 79 | 1011.4 |
| 20260906021823 | 26 | 360 | 1.6 | 4.8 | 0.00 | 0.10 | 0.10 | 79 | 1011.4 |
| 20260906021754 | 26 | 360 | 0.0 | 3.2 | 0.00 | 0.10 | 0.10 | 79 | 1011.4 |
| 20260906021526 | 26 | 360 | 0.0 | 0.0 | 0.00 | 0.10 | 0.10 | 79 | 1011.4 |
| 20260906021433 | 26 | 360 | 0.0 | 0.0 | 0.00 | 0.10 | 0.10 | 79 | 1011.3 |
| 20260906021321 | 26 | 360 | 0.0 | 0.0 | 0.00 | 0.10 | 0.10 | 79 | 1011.3 |
| 20260906021250 | 26 | 360 | 0.0 | 1.6 | 0.00 | 0.10 | 0.10 | 79 | 1011.3 |
| 20260906021137 | 26 | 360 | 0.0 | 3.2 | 0.00 | 0.10 | 0.10 | 79 | 1011.4 |
| 20260906021043 | 26 | 360 | 0.0 | 3.2 | 0.00 | 0.10 | 0.10 | 79 | 1011.4 |
| 20260906020930 | 26 | 360 | 0.0 | 3.2 | 0.00 | 0.10 | 0.10 | 79 | 1011.3 |
| 20260906020837 | 26 | 360 | 0.0 | 3.2 | 0.00 | 0.10 | 0.10 | 79 | 1011.3 |
| 20260906020725 | 26 | 360 | 0.0 | 3.2 | 0.00 | 0.10 | 0.10 | 79 | 1011.3 |
| 20260906020634 | 26 | 360 | 0.0 | 3.2 | 0.00 | 0.10 | 0.10 | 79 | 1011.3 |
| 20260906020522 | 26 | 360 | 0.0 | 3.2 | 0.00 | 0.10 | 0.10 | 79 | 1011.3 |
| 20260906020450 | 26 | 360 | 0.0 | 3.2 | 0.00 | 0.10 | 0.10 | 79 | 1011.3 |
| 20260906020337 | 26 | 360 | 0.0 | 3.2 | 0.00 | 0.10 | 0.10 | 79 | 1011.3 |
| 20260906020307 | 26 | 360 | 0.0 | 3.2 | 0.00 | 0.10 | 0.10 | 79 | 1011.3 |
| 20260906020024 | 26 | 360 | 0.0 | 4.8 | 0.00 | 0.10 | 0.10 | 79 | 1011.2 |
| 20260906015951 | 26 | 360 | 1.6 | 4.8 | 0.00 | 0.10 | 0.10 | 79 | 1011.2 |
| 20260906015837 | 26 | 360 | 1.6 | 4.8 | 0.00 | 0.10 | 0.10 | 79 | 1011.2 |
| 20260906015723 | 26 | 360 | 1.6 | 4.8 | 0.00 | 0.10 | 0.10 | 78 | 1011.2 |
| 20260906015630 | 26 | 360 | 1.6 | 4.8 | 0.00 | 0.10 | 0.10 | 77 | 1011.2 |
| 20260906015518 | 26 | 360 | 3.2 | 4.8 | 0.00 | 0.10 | 0.10 | 78 | 1011.2 |
| 20260906015428 | 26 | 360 | 3.2 | 4.8 | 0.00 | 0.10 | 0.10 | 77 | 1011.2 |
| 20260906015335 | 26 | 360 | 1.6 | 4.8 | 0.00 | 0.10 | 0.10 | 78 | 1011.2 |
| 20260906015243 | 26 | 360 | 0.0 | 4.8 | 0.00 | 0.10 | 0.10 | 78 | 1011.1 |
| 20260906015129 | 26 | 360 | 1.6 | 4.8 | 0.00 | 0.10 | 0.10 | 78 | 1011.0 |
| 20260906015037 | 26 | 360 | 1.6 | 4.8 | 0.00 | 0.10 | 0.10 | 79 | 1011.1 |
| 20260906014944 | 26 | 360 | 1.6 | 4.8 | 0.00 | 0.10 | 0.10 | 79 | 1011.1 |
| 20260906014910 | 26 | 360 | 1.6 | 4.8 | 0.00 | 0.10 | 0.10 | 78 | 1011.1 |
| 20260906014824 | 26 | 360 | 3.2 | 4.8 | 0.00 | 0.10 | 0.10 | 79 | 1011.1 |
| 20260906014537 | 26 | 360 | 1.6 | 4.8 | 0.00 | 0.10 | 0.10 | 78 | 1011.1 |
| 20260906014424 | 26 | 360 | 0.0 | 3.2 | 0.00 | 0.10 | 0.10 | 78 | 1011.1 |
| 20260906014350 | 26 | 360 | 0.0 | 0.0 | 0.00 | 0.10 | 0.10 | 78 | 1011.1 |
| 20260906014220 | 26 | 360 | 0.0 | 1.6 | 0.00 | 0.10 | 0.10 | 78 | 1011.0 |
| 20260906014127 | 26 | 360 | 0.0 | 1.6 | 0.00 | 0.10 | 0.10 | 78 | 1011.0 |
| 20260906014034 | 26 | 360 | 0.0 | 1.6 | 0.00 | 0.10 | 0.10 | 78 | 1011.0 |
| 20260906013941 | 26 | 360 | 0.0 | 1.6 | 0.00 | 0.10 | 0.10 | 78 | 1011.0 |
| 20260906013826 | 26 | 360 | 0.0 | 1.6 | 0.00 | 0.10 | 0.10 | 78 | 1011.0 |
| 20260906013753 | 26 | 360 | 0.0 | 1.6 | 0.00 | 0.10 | 0.10 | 77 | 1010.9 |
| 20260906013639 | 26 | 360 | 0.0 | 1.6 | 0.00 | 0.10 | 0.10 | 77 | 1010.8 |
| 20260906013528 | 26 | 360 | 0.0 | 1.6 | 0.00 | 0.10 | 0.10 | 77 | 1010.9 |
| 20260906013435 | 26 | 360 | 0.0 | 1.6 | 0.00 | 0.10 | 0.10 | 78 | 1010.8 |
| 20260906013402 | 26 | 360 | 0.0 | 1.6 | 0.00 | 0.10 | 0.10 | 79 | 1010.8 |
| 20260906013311 | 26 | 360 | 0.0 | 3.2 | 0.00 | 0.10 | 0.10 | 79 | 1010.8 |
| 20260906013024 | 26 | 360 | 0.0 | 3.2 | 0.00 | 0.10 | 0.10 | 78 | 1010.8 |
| 20260906012935 | 26 | 360 | 0.0 | 3.2 | 0.00 | 0.10 | 0.10 | 78 | 1010.7 |
| 20260906012843 | 26 | 360 | 0.0 | 6.4 | 0.00 | 0.10 | 0.10 | 78 | 1010.8 |
| 20260906012728 | 26 | 360 | 0.0 | 6.4 | 0.00 | 0.10 | 0.10 | 78 | 1010.8 |
| 20260906012635 | 26 | 360 | 0.0 | 6.4 | 0.00 | 0.10 | 0.10 | 78 | 1010.8 |
| 20260906012521 | 26 | 360 | 1.6 | 6.4 | 0.00 | 0.10 | 0.10 | 79 | 1010.8 |
| 20260906012428 | 26 | 360 | 1.6 | 6.4 | 0.00 | 0.10 | 0.10 | 79 | 1010.8 |
| 20260906012339 | 26 | 360 | 1.6 | 6.4 | 0.00 | 0.10 | 0.10 | 78 | 1011.0 |
| 20260906012224 | 26 | 360 | 1.6 | 6.4 | 0.00 | 0.10 | 0.10 | 78 | 1010.9 |
| 20260906012131 | 26 | 360 | 3.2 | 6.4 | 0.00 | 0.10 | 0.10 | 79 | 1010.8 |
| 20260906012018 | 26 | 360 | 3.2 | 6.4 | 0.00 | 0.10 | 0.10 | 79 | 1010.8 |
| 20260906011926 | 26 | 360 | 3.2 | 6.4 | 0.00 | 0.10 | 0.10 | 78 | 1010.8 |
| 20260906011853 | 26 | 360 | 1.6 | 3.2 | 0.00 | 0.10 | 0.10 | 78 | 1010.8 |
| 20260906011806 | 26 | 360 | 1.6 | 3.2 | 0.00 | 0.10 | 0.10 | 78 | 1010.8 |
| 20260906011518 | 26 | 360 | 1.6 | 4.8 | 0.00 | 0.10 | 0.10 | 78 | 1010.8 |
| 20260906011425 | 26 | 360 | 0.0 | 4.8 | 0.00 | 0.10 | 0.10 | 78 | 1010.8 |
| 20260906011332 | 26 | 360 | 0.0 | 4.8 | 0.00 | 0.10 | 0.10 | 78 | 1010.8 |
| 20260906011219 | 26 | 360 | 1.6 | 4.8 | 0.00 | 0.10 | 0.10 | 78 | 1010.7 |
| 20260906011130 | 26 | 360 | 1.6 | 4.8 | 0.00 | 0.10 | 0.10 | 78 | 1010.8 |
| 20260906011018 | 26 | 360 | 1.6 | 6.4 | 0.00 | 0.10 | 0.10 | 78 | 1010.8 |
| 20260906010925 | 26 | 360 | 1.6 | 6.4 | 0.00 | 0.10 | 0.10 | 78 | 1010.7 |
| 20260906010831 | 26 | 360 | 1.6 | 6.4 | 0.00 | 0.10 | 0.10 | 77 | 1010.7 |
| 20260906010737 | 26 | 360 | 1.6 | 6.4 | 0.00 | 0.10 | 0.10 | 77 | 1010.7 |
| 20260906010627 | 26 | 360 | 1.6 | 6.4 | 0.00 | 0.10 | 0.10 | 77 | 1010.7 |
| 20260906010555 | 26 | 360 | 3.2 | 6.4 | 0.00 | 0.10 | 0.10 | 78 | 1010.7 |
| 20260906010421 | 26 | 360 | 3.2 | 6.4 | 0.00 | 0.10 | 0.10 | 78 | 1010.7 |
| 20260906010328 | 27 | 360 | 3.2 | 6.4 | 0.00 | 0.10 | 0.10 | 78 | 1010.6 |
| 20260906010259 | 26 | 360 | 4.8 | 6.4 | 0.00 | 0.10 | 0.10 | 78 | 1010.6 |
| 20260906010036 | 27 | 360 | 4.8 | 6.4 | 0.00 | 0.10 | 0.10 | 78 | 1010.6 |
| 20260906005922 | 27 | 360 | 3.2 | 4.8 | 0.00 | 0.10 | 0.10 | 77 | 1010.6 |
| 20260906005848 | 27 | 28 | 3.2 | 6.4 | 0.00 | 0.10 | 0.10 | 77 | 1010.5 |
| 20260906005734 | 26 | 42 | 3.2 | 6.4 | 0.00 | 0.10 | 0.10 | 77 | 1010.6 |
| 20260906005619 | 27 | 42 | 3.2 | 6.4 | 0.00 | 0.10 | 0.10 | 77 | 1010.7 |
| 20260906005528 | 27 | 61 | 3.2 | 6.4 | 0.00 | 0.10 | 0.10 | 76 | 1010.6 |
| 20260906005420 | 27 | 55 | 3.2 | 6.4 | 0.00 | 0.10 | 0.10 | 77 | 1010.5 |
| 20260906005327 | 27 | 53 | 3.2 | 6.4 | 0.00 | 0.10 | 0.10 | 77 | 1010.5 |
| 20260906005232 | 27 | 57 | 3.2 | 6.4 | 0.00 | 0.10 | 0.10 | 77 | 1010.5 |
| 20260906005120 | 27 | 42 | 3.2 | 6.4 | 0.00 | 0.10 | 0.10 | 77 | 1010.4 |
| 20260906005047 | 27 | 42 | 3.2 | 6.4 | 0.00 | 0.10 | 0.10 | 77 | 1010.4 |
| 20260906004953 | 27 | 42 | 3.2 | 6.4 | 0.00 | 0.10 | 0.10 | 77 | 1010.4 |
| 20260906004822 | 27 | 42 | 4.8 | 6.4 | 0.00 | 0.10 | 0.10 | 77 | 1010.5 |
| 20260906004752 | 27 | 42 | 4.8 | 6.4 | 0.00 | 0.10 | 0.10 | 77 | 1010.5 |
| 20260906004525 | 27 | 36 | 4.8 | 6.4 | 0.00 | 0.10 | 0.10 | 77 | 1010.4 |
| 20260906004433 | 27 | 37 | 4.8 | 6.4 | 0.00 | 0.10 | 0.10 | 77 | 1010.4 |
| 20260906004321 | 27 | 37 | 3.2 | 6.4 | 0.00 | 0.10 | 0.10 | 77 | 1010.4 |
| 20260906004253 | 27 | 37 | 1.6 | 6.4 | 0.00 | 0.10 | 0.10 | 76 | 1010.5 |
| 20260906004119 | 27 | 69 | 0.0 | 6.4 | 0.00 | 0.10 | 0.10 | 76 | 1010.5 |
| 20260906004027 | 27 | 87 | 0.0 | 6.4 | 0.00 | 0.10 | 0.10 | 76 | 1010.6 |
| 20260906003935 | 27 | 87 | 0.0 | 6.4 | 0.00 | 0.10 | 0.10 | 77 | 1010.4 |
| 20260906003823 | 27 | 87 | 1.6 | 6.4 | 0.00 | 0.10 | 0.10 | 77 | 1010.5 |
| 20260906003732 | 27 | 121 | 1.6 | 6.4 | 0.00 | 0.10 | 0.10 | 77 | 1010.5 |
| 20260906003620 | 27 | 98 | 4.8 | 6.4 | 0.00 | 0.10 | 0.10 | 77 | 1010.5 |
| 20260906003527 | 27 | 119 | 3.2 | 8.0 | 0.00 | 0.10 | 0.10 | 77 | 1010.5 |
| 20260906003454 | 27 | 117 | 3.2 | 8.0 | 0.00 | 0.10 | 0.10 | 76 | 1010.5 |
| 20260906003422 | 27 | 116 | 1.6 | 3.2 | 0.00 | 0.10 | 0.10 | 76 | 1010.5 |
| 20260906003331 | 27 | 116 | 0.0 | 4.8 | 0.00 | 0.10 | 0.10 | 74 | 1010.5 |
| 20260906003044 | 27 | 116 | 0.0 | 4.8 | 0.03 | 0.10 | 0.10 | 75 | 1010.5 |
| 20260906002934 | 27 | 116 | 0.0 | 4.8 | 0.08 | 0.10 | 0.10 | 75 | 1010.5 |
| 20260906002820 | 27 | 116 | 0.0 | 4.8 | 0.10 | 0.10 | 0.10 | 75 | 1010.6 |
| 20260906002727 | 27 | 219 | 0.0 | 4.8 | 0.10 | 0.10 | 0.10 | 76 | 1010.5 |
| 20260906002635 | 27 | 219 | 1.6 | 6.4 | 0.10 | 0.10 | 0.10 | 77 | 1010.5 |
| 20260906002521 | 27 | 219 | 1.6 | 6.4 | 0.10 | 0.10 | 0.10 | 75 | 1010.7 |
| 20260906002449 | 27 | 208 | 1.6 | 6.4 | 0.10 | 0.10 | 0.10 | 76 | 1010.6 |
| 20260906002319 | 27 | 128 | 0.0 | 6.4 | 0.10 | 0.10 | 0.10 | 76 | 1010.6 |
| 20260906002227 | 27 | 128 | 0.0 | 6.4 | 0.10 | 0.10 | 0.10 | 75 | 1010.7 |
| 20260906002133 | 27 | 128 | 0.0 | 12.9 | 0.10 | 0.10 | 0.10 | 75 | 1010.6 |
| 20260906002019 | 27 | 173 | 0.0 | 12.9 | 0.10 | 0.10 | 0.10 | 75 | 1010.7 |
| 20260906001926 | 27 | 173 | 1.6 | 12.9 | 0.10 | 0.10 | 0.10 | 75 | 1010.7 |
| 20260906001833 | 27 | 158 | 1.6 | 12.9 | 0.10 | 0.10 | 0.10 | 75 | 1010.8 |
| 20260906001807 | 27 | 149 | 1.6 | 12.9 | 0.10 | 0.10 | 0.10 | 75 | 1010.8 |
| 20260906001521 | 27 | 190 | 3.2 | 12.9 | 0.10 | 0.10 | 0.10 | 75 | 1010.8 |
| 20260906001428 | 27 | 193 | 4.8 | 22.5 | 0.10 | 0.10 | 0.10 | 75 | 1010.8 |
| 20260906001334 | 27 | 186 | 6.4 | 25.7 | 0.10 | 0.10 | 0.10 | 76 | 1010.9 |
| 20260906001225 | 27 | 197 | 6.4 | 25.7 | 0.10 | 0.10 | 0.10 | 75 | 1010.9 |
| 20260906001132 | 27 | 180 | 8.0 | 25.7 | 0.10 | 0.10 | 0.10 | 76 | 1010.9 |
| 20260906001018 | 27 | 152 | 9.7 | 25.7 | 0.10 | 0.10 | 0.10 | 76 | 1011.1 |
| 20260906000925 | 27 | 121 | 9.7 | 25.7 | 0.10 | 0.10 | 0.10 | 75 | 1011.1 |
| 20260906000831 | 27 | 113 | 8.0 | 25.7 | 0.10 | 0.10 | 0.10 | 75 | 1011.0 |
| 20260906000758 | 27 | 123 | 8.0 | 25.7 | 0.10 | 0.10 | 0.10 | 75 | 1011.1 |
| 20260906000629 | 27 | 131 | 11.3 | 25.7 | 0.10 | 0.10 | 0.10 | 74 | 1011.1 |
| 20260906000518 | 27 | 171 | 14.5 | 25.7 | 0.10 | 0.10 | 0.10 | 75 | 1011.2 |
| 20260906000425 | 27 | 156 | 12.9 | 24.1 | 0.10 | 0.10 | 0.10 | 75 | 1011.2 |
| 20260906000330 | 27 | 181 | 9.7 | 16.1 | 0.10 | 0.10 | 0.10 | 75 | 1011.3 |
| 20260906000303 | 27 | 142 | 9.7 | 16.1 | 0.10 | 0.10 | 0.10 | 76 | 1011.3 |
| 20260906000019 | 27 | 134 | 11.3 | 22.5 | 0.10 | 0.10 | 0.10 | 76 | 1011.2 |
| 20260905235926 | 27 | 194 | 9.7 | 22.5 | 0.10 | 0.10 | 0.10 | 76 | 1011.3 |
| 20260905235834 | 27 | 170 | 9.7 | 22.5 | 0.10 | 0.10 | 0.10 | 77 | 1011.3 |
| 20260905235742 | 27 | 172 | 9.7 | 22.5 | 0.10 | 0.10 | 0.10 | 77 | 1011.3 |
| 20260905235628 | 27 | 171 | 11.3 | 22.5 | 0.10 | 0.10 | 0.10 | 77 | 1011.4 |
| 20260905235534 | 27 | 135 | 11.3 | 22.5 | 0.10 | 0.10 | 0.10 | 79 | 1011.2 |
| 20260905235423 | 27 | 74 | 9.7 | 24.1 | 0.10 | 0.10 | 0.10 | 79 | 1011.3 |
| 20260905235331 | 27 | 116 | 9.7 | 24.1 | 0.10 | 0.10 | 0.10 | 79 | 1011.4 |
| 20260905235218 | 27 | 149 | 14.5 | 24.1 | 0.10 | 0.10 | 0.10 | 77 | 1011.4 |
| 20260905235125 | 27 | 130 | 12.9 | 24.1 | 0.10 | 0.10 | 0.10 | 79 | 1011.4 |
| 20260905235031 | 26 | 128 | 11.3 | 29.0 | 0.10 | 0.10 | 0.10 | 80 | 1011.4 |
| 20260905234923 | 26 | 130 | 9.7 | 37.0 | 0.10 | 0.10 | 0.10 | 80 | 1011.3 |
| 20260905234830 | 26 | 115 | 12.9 | 37.0 | 0.10 | 0.10 | 0.10 | 81 | 1011.3 |
| 20260905234800 | 26 | 53 | 16.1 | 43.5 | 0.10 | 0.10 | 0.10 | 81 | 1011.3 |
| 20260905234534 | 26 | 109 | 17.7 | 43.5 | 0.10 | 0.10 | 0.10 | 80 | 1011.3 |
| 20260905234425 | 26 | 104 | 17.7 | 43.5 | 0.10 | 0.10 | 0.10 | 81 | 1011.3 |
| 20260905234331 | 26 | 146 | 19.3 | 43.5 | 0.10 | 0.10 | 0.10 | 80 | 1011.2 |
| 20260905234219 | 26 | 115 | 24.1 | 43.5 | 0.10 | 0.10 | 0.10 | 80 | 1011.2 |
| 20260905234126 | 27 | 111 | 25.7 | 43.5 | 0.10 | 0.10 | 0.10 | 80 | 1011.2 |
| 20260905234033 | 27 | 118 | 29.0 | 43.5 | 0.10 | 0.10 | 0.10 | 80 | 1011.3 |
| 20260905233921 | 27 | 132 | 32.2 | 43.5 | 0.10 | 0.10 | 0.10 | 79 | 1011.3 |
| 20260905233853 | 27 | 113 | 30.6 | 43.5 | 0.10 | 0.10 | 0.10 | 79 | 1011.3 |
| 20260905233719 | 28 | 126 | 27.4 | 43.5 | 0.10 | 0.10 | 0.10 | 78 | 1011.4 |
| 20260905233626 | 28 | 122 | 25.7 | 43.5 | 0.10 | 0.10 | 0.10 | 78 | 1011.5 |
| 20260905233532 | 28 | 126 | 25.7 | 43.5 | 0.10 | 0.10 | 0.10 | 77 | 1011.5 |
| 20260905233419 | 29 | 183 | 29.0 | 43.5 | 0.10 | 0.10 | 0.10 | 75 | 1011.5 |
| 20260905233326 | 30 | 128 | 30.6 | 43.5 | 0.10 | 0.10 | 0.10 | 68 | 1011.3 |
| 20260905233301 | 30 | 136 | 29.0 | 43.5 | 0.10 | 0.10 | 0.10 | 68 | 1011.3 |
| 20260905233034 | 32 | 103 | 27.4 | 40.2 | 0.10 | 0.10 | 0.10 | 65 | 1010.9 |
| 20260905232942 | 33 | 90 | 25.7 | 40.2 | 0.10 | 0.10 | 0.10 | 64 | 1010.8 |
| 20260905232829 | 33 | 142 | 27.4 | 40.2 | 0.10 | 0.10 | 0.10 | 64 | 1010.8 |
| 20260905232718 | 35 | 86 | 29.0 | 41.8 | 0.08 | 0.08 | 0.08 | 61 | 1010.7 |
| 20260905232645 | 35 | 148 | 22.5 | 35.4 | 0.08 | 0.08 | 0.08 | 60 | 1010.7 |
| 20260905232530 | 36 | 123 | 12.9 | 29.0 | 0.00 | 0.00 | 0.00 | 59 | 1010.7 |
| 20260905232438 | 36 | 90 | 8.0 | 12.9 | 0.00 | 0.00 | 0.00 | 57 | 1010.5 |
| 20260905232326 | 36 | 44 | 8.0 | 11.3 | 0.00 | 0.00 | 0.00 | 56 | 1010.4 |
| 20260905232253 | 36 | 32 | 8.0 | 11.3 | 0.00 | 0.00 | 0.00 | 55 | 1010.3 |
| 20260905232119 | 36 | 42 | 6.4 | 8.0 | 0.00 | 0.00 | 0.00 | 54 | 1010.2 |
| 20260905232030 | 36 | 41 | 4.8 | 8.0 | 0.00 | 0.00 | 0.00 | 53 | 1010.3 |
| 20260905231918 | 36 | 31 | 3.2 | 6.4 | 0.00 | 0.00 | 0.00 | 54 | 1010.1 |
| 20260905231825 | 36 | 348 | 3.2 | 6.4 | 0.00 | 0.00 | 0.00 | 54 | 1010.2 |
| 20260905231753 | 36 | 331 | 3.2 | 6.4 | 0.00 | 0.00 | 0.00 | 55 | 1010.2 |
| 20260905231529 | 36 | 333 | 3.2 | 6.4 | 0.00 | 0.00 | 0.00 | 55 | 1010.2 |
| 20260905231437 | 36 | 351 | 4.8 | 6.4 | 0.00 | 0.00 | 0.00 | 55 | 1010.2 |
| 20260905231324 | 36 | 12 | 4.8 | 6.4 | 0.00 | 0.00 | 0.00 | 53 | 1010.1 |
| 20260905231233 | 36 | 5 | 3.2 | 4.8 | 0.00 | 0.00 | 0.00 | 53 | 1010.1 |
| 20260905231121 | 36 | 5 | 1.6 | 4.8 | 0.00 | 0.00 | 0.00 | 52 | 1010.2 |
| 20260905231029 | 36 | 5 | 1.6 | 4.8 | 0.00 | 0.00 | 0.00 | 52 | 1010.2 |
| 20260905230921 | 36 | 5 | 1.6 | 4.8 | 0.00 | 0.00 | 0.00 | 52 | 1010.1 |
| 20260905230827 | 36 | 5 | 3.2 | 4.8 | 0.00 | 0.00 | 0.00 | 52 | 1010.1 |
| 20260905230735 | 36 | 5 | 3.2 | 4.8 | 0.00 | 0.00 | 0.00 | 52 | 1010.1 |
| 20260905230643 | 36 | 5 | 3.2 | 4.8 | 0.00 | 0.00 | 0.00 | 52 | 1010.2 |
| 20260905230528 | 36 | 5 | 3.2 | 4.8 | 0.00 | 0.00 | 0.00 | 52 | 1010.1 |
| 20260905230418 | 36 | 360 | 3.2 | 4.8 | 0.00 | 0.00 | 0.00 | 52 | 1010.2 |
| 20260905230324 | 36 | 360 | 3.2 | 4.8 | 0.00 | 0.00 | 0.00 | 51 | 1010.1 |
| 20260905230255 | 36 | 10 | 3.2 | 4.8 | 0.00 | 0.00 | 0.00 | 51 | 1010.1 |
| 20260905230048 | 36 | 10 | 3.2 | 4.8 | 0.00 | 0.00 | 0.00 | 51 | 1010.1 |
| 20260905225933 | 36 | 10 | 3.2 | 4.8 | 0.00 | 0.00 | 0.00 | 51 | 1010.0 |
| 20260905225823 | 36 | 10 | 3.2 | 6.4 | 0.00 | 0.00 | 0.00 | 51 | 1010.0 |
| 20260905225731 | 36 | 10 | 3.2 | 6.4 | 0.00 | 0.00 | 0.00 | 51 | 1010.1 |
| 20260905225637 | 36 | 360 | 3.2 | 6.4 | 0.00 | 0.00 | 0.00 | 51 | 1010.1 |
| 20260905225523 | 36 | 360 | 3.2 | 6.4 | 0.00 | 0.00 | 0.00 | 51 | 1010.1 |
| 20260905225429 | 36 | 360 | 3.2 | 6.4 | 0.00 | 0.00 | 0.00 | 50 | 1010.1 |
| 20260905225334 | 36 | 360 | 4.8 | 6.4 | 0.00 | 0.00 | 0.00 | 50 | 1010.1 |
| 20260905225227 | 37 | 5 | 4.8 | 6.4 | 0.00 | 0.00 | 0.00 | 51 | 1010.1 |
| 20260905225133 | 37 | 5 | 3.2 | 8.0 | 0.00 | 0.00 | 0.00 | 50 | 1010.1 |
| 20260905225020 | 37 | 5 | 4.8 | 8.0 | 0.00 | 0.00 | 0.00 | 50 | 1010.1 |
| 20260905224929 | 37 | 5 | 4.8 | 8.0 | 0.00 | 0.00 | 0.00 | 50 | 1010.0 |
| 20260905224809 | 37 | 11 | 4.8 | 8.0 | 0.00 | 0.00 | 0.00 | 51 | 1010.1 |
| 20260905224523 | 37 | 11 | 4.8 | 8.0 | 0.00 | 0.00 | 0.00 | 50 | 1010.0 |
| 20260905224452 | 37 | 355 | 4.8 | 8.0 | 0.00 | 0.00 | 0.00 | 49 | 1010.1 |
| 20260905224357 | 37 | 351 | 4.8 | 8.0 | 0.00 | 0.00 | 0.00 | 49 | 1010.1 |
| 20260905224222 | 37 | 22 | 4.8 | 8.0 | 0.00 | 0.00 | 0.00 | 49 | 1010.1 |
| 20260905224130 | 37 | 5 | 4.8 | 8.0 | 0.00 | 0.00 | 0.00 | 48 | 1010.0 |
| 20260905224020 | 37 | 43 | 3.2 | 8.0 | 0.00 | 0.00 | 0.00 | 49 | 1010.0 |
| 20260905223928 | 37 | 29 | 3.2 | 8.0 | 0.00 | 0.00 | 0.00 | 48 | 1010.0 |
| 20260905223834 | 37 | 34 | 3.2 | 8.0 | 0.00 | 0.00 | 0.00 | 48 | 1010.1 |
| 20260905223741 | 37 | 47 | 4.8 | 8.0 | 0.00 | 0.00 | 0.00 | 49 | 1010.0 |
| 20260905223628 | 37 | 19 | 4.8 | 8.0 | 0.00 | 0.00 | 0.00 | 48 | 1010.1 |
| 20260905223555 | 37 | 42 | 4.8 | 8.0 | 0.00 | 0.00 | 0.00 | 49 | 1010.1 |
| 20260905223420 | 37 | 24 | 3.2 | 8.0 | 0.00 | 0.00 | 0.00 | 48 | 1010.1 |
| 20260905223303 | 37 | 9 | 3.2 | 8.0 | 0.00 | 0.00 | 0.00 | 48 | 1010.1 |
| 20260905223056 | 37 | 5 | 4.8 | 8.0 | 0.00 | 0.00 | 0.00 | 48 | 1010.2 |
| 20260905222922 | 37 | 24 | 6.4 | 8.0 | 0.00 | 0.00 | 0.00 | 48 | 1010.1 |
| 20260905222830 | 37 | 29 | 4.8 | 8.0 | 0.00 | 0.00 | 0.00 | 48 | 1010.2 |
| 20260905222721 | 37 | 40 | 3.2 | 8.0 | 0.00 | 0.00 | 0.00 | 47 | 1010.1 |
| 20260905222648 | 37 | 78 | 4.8 | 8.0 | 0.00 | 0.00 | 0.00 | 47 | 1010.2 |
| 20260905222554 | 37 | 41 | 4.8 | 8.0 | 0.00 | 0.00 | 0.00 | 46 | 1010.0 |
| 20260905222420 | 37 | 59 | 4.8 | 8.0 | 0.00 | 0.00 | 0.00 | 46 | 1010.1 |
| 20260905222349 | 37 | 57 | 3.2 | 6.4 | 0.00 | 0.00 | 0.00 | 46 | 1010.2 |
| 20260905222234 | 37 | 47 | 3.2 | 6.4 | 0.00 | 0.00 | 0.00 | 47 | 1010.1 |
| 20260905222125 | 37 | 89 | 1.6 | 6.4 | 0.00 | 0.00 | 0.00 | 46 | 1010.1 |
| 20260905222031 | 37 | 34 | 1.6 | 4.8 | 0.00 | 0.00 | 0.00 | 46 | 1010.1 |
| 20260905221918 | 37 | 360 | 3.2 | 8.0 | 0.00 | 0.00 | 0.00 | 47 | 1010.1 |
| 20260905221845 | 38 | 360 | 3.2 | 8.0 | 0.00 | 0.00 | 0.00 | 46 | 1010.1 |
| 20260905221817 | 38 | 360 | 1.6 | 8.0 | 0.00 | 0.00 | 0.00 | 46 | 1010.1 |
| 20260905221533 | 38 | 325 | 1.6 | 8.0 | 0.00 | 0.00 | 0.00 | 46 | 1010.1 |
| 20260905221420 | 38 | 325 | 1.6 | 8.0 | 0.00 | 0.00 | 0.00 | 46 | 1010.1 |
| 20260905221346 | 38 | 30 | 3.2 | 8.0 | 0.00 | 0.00 | 0.00 | 47 | 1010.2 |
| 20260905221232 | 38 | 38 | 3.2 | 12.9 | 0.00 | 0.00 | 0.00 | 47 | 1010.2 |
| 20260905221140 | 38 | 20 | 4.8 | 14.5 | 0.00 | 0.00 | 0.00 | 47 | 1010.2 |
| 20260905221027 | 38 | 15 | 4.8 | 14.5 | 0.00 | 0.00 | 0.00 | 47 | 1010.2 |
| 20260905220919 | 38 | 348 | 3.2 | 14.5 | 0.00 | 0.00 | 0.00 | 46 | 1010.2 |
| 20260905220826 | 37 | 355 | 3.2 | 14.5 | 0.00 | 0.00 | 0.00 | 47 | 1010.3 |
| 20260905220732 | 37 | 355 | 4.8 | 14.5 | 0.00 | 0.00 | 0.00 | 47 | 1010.2 |
| 20260905220639 | 37 | 9 | 4.8 | 14.5 | 0.00 | 0.00 | 0.00 | 47 | 1010.2 |
| 20260905220525 | 37 | 11 | 4.8 | 14.5 | 0.00 | 0.00 | 0.00 | 47 | 1010.2 |
| 20260905220432 | 37 | 9 | 8.0 | 14.5 | 0.00 | 0.00 | 0.00 | 48 | 1010.2 |
| 20260905220339 | 38 | 5 | 8.0 | 14.5 | 0.00 | 0.00 | 0.00 | 48 | 1010.3 |
| 20260905220253 | 37 | 346 | 6.4 | 12.9 | 0.00 | 0.00 | 0.00 | 48 | 1010.3 |
| 20260905220026 | 37 | 53 | 4.8 | 14.5 | 0.00 | 0.00 | 0.00 | 47 | 1010.2 |
| 20260905215933 | 37 | 44 | 6.4 | 16.1 | 0.00 | 0.00 | 0.00 | 47 | 1010.2 |
| 20260905215820 | 37 | 360 | 6.4 | 16.1 | 0.00 | 0.00 | 0.00 | 47 | 1010.3 |
| 20260905215732 | 37 | 28 | 6.4 | 16.1 | 0.00 | 0.00 | 0.00 | 47 | 1010.2 |
| 20260905215620 | 37 | 49 | 6.4 | 16.1 | 0.00 | 0.00 | 0.00 | 47 | 1010.3 |
| 20260905215548 | 37 | 40 | 8.0 | 16.1 | 0.00 | 0.00 | 0.00 | 47 | 1010.3 |
| 20260905215453 | 37 | 11 | 8.0 | 16.1 | 0.00 | 0.00 | 0.00 | 48 | 1010.3 |
| 20260905215318 | 37 | 44 | 9.7 | 16.1 | 0.00 | 0.00 | 0.00 | 48 | 1010.3 |
| 20260905215224 | 37 | 23 | 9.7 | 16.1 | 0.00 | 0.00 | 0.00 | 47 | 1010.2 |
| 20260905215131 | 37 | 41 | 8.0 | 16.1 | 0.00 | 0.00 | 0.00 | 46 | 1010.3 |
| 20260905215022 | 38 | 61 | 6.4 | 12.9 | 0.00 | 0.00 | 0.00 | 46 | 1010.3 |
| 20260905214929 | 38 | 42 | 6.4 | 12.9 | 0.00 | 0.00 | 0.00 | 46 | 1010.3 |
| 20260905214836 | 38 | 65 | 6.4 | 11.3 | 0.00 | 0.00 | 0.00 | 46 | 1010.3 |
| 20260905214806 | 38 | 43 | 6.4 | 11.3 | 0.00 | 0.00 | 0.00 | 46 | 1010.3 |
| 20260905214523 | 38 | 50 | 6.4 | 14.5 | 0.00 | 0.00 | 0.00 | 48 | 1010.4 |
| 20260905214431 | 38 | 26 | 4.8 | 14.5 | 0.00 | 0.00 | 0.00 | 47 | 1010.3 |
| 20260905214318 | 38 | 67 | 4.8 | 14.5 | 0.00 | 0.00 | 0.00 | 47 | 1010.3 |
| 20260905214225 | 38 | 44 | 4.8 | 14.5 | 0.00 | 0.00 | 0.00 | 47 | 1010.3 |
| 20260905214132 | 38 | 54 | 4.8 | 14.5 | 0.00 | 0.00 | 0.00 | 46 | 1010.2 |
| 20260905214018 | 38 | 30 | 6.4 | 16.1 | 0.00 | 0.00 | 0.00 | 46 | 1010.3 |
| 20260905213949 | 38 | 39 | 8.0 | 16.1 | 0.00 | 0.00 | 0.00 | 46 | 1010.4 |
| 20260905213835 | 38 | 53 | 6.4 | 16.1 | 0.00 | 0.00 | 0.00 | 48 | 1010.2 |
| 20260905213722 | 38 | 36 | 1.6 | 16.1 | 0.00 | 0.00 | 0.00 | 46 | 1010.3 |
| 20260905213650 | 38 | 71 | 1.6 | 16.1 | 0.00 | 0.00 | 0.00 | 49 | 1010.3 |
| 20260905213536 | 38 | 355 | 3.2 | 16.1 | 0.00 | 0.00 | 0.00 | 46 | 1010.4 |
| 20260905213443 | 38 | 350 | 4.8 | 16.1 | 0.00 | 0.00 | 0.00 | 45 | 1010.3 |
| 20260905213329 | 38 | 12 | 4.8 | 8.0 | 0.00 | 0.00 | 0.00 | 45 | 1010.4 |
| 20260905213304 | 38 | 5 | 3.2 | 8.0 | 0.00 | 0.00 | 0.00 | 46 | 1010.4 |
| 20260905213018 | 38 | 144 | 1.6 | 8.0 | 0.00 | 0.00 | 0.00 | 45 | 1010.3 |
| 20260905212946 | 38 | 84 | 1.6 | 8.0 | 0.00 | 0.00 | 0.00 | 45 | 1010.3 |
| 20260905212853 | 38 | 290 | 1.6 | 8.0 | 0.00 | 0.00 | 0.00 | 44 | 1010.3 |
| 20260905212719 | 38 | 290 | 3.2 | 12.9 | 0.00 | 0.00 | 0.00 | 45 | 1010.3 |
| 20260905212630 | 38 | 282 | 4.8 | 14.5 | 0.00 | 0.00 | 0.00 | 45 | 1010.3 |
| 20260905212557 | 38 | 309 | 4.8 | 14.5 | 0.00 | 0.00 | 0.00 | 45 | 1010.4 |
| 20260905212422 | 38 | 10 | 4.8 | 14.5 | 0.00 | 0.00 | 0.00 | 46 | 1010.3 |
| 20260905212330 | 38 | 351 | 6.4 | 14.5 | 0.00 | 0.00 | 0.00 | 45 | 1010.2 |
| 20260905212237 | 38 | 32 | 6.4 | 14.5 | 0.00 | 0.00 | 0.00 | 45 | 1010.4 |
| 20260905212125 | 38 | 5 | 6.4 | 14.5 | 0.00 | 0.00 | 0.00 | 46 | 1010.3 |
| 20260905212055 | 38 | 19 | 6.4 | 14.5 | 0.00 | 0.00 | 0.00 | 46 | 1010.2 |
| 20260905211920 | 38 | 22 | 6.4 | 14.5 | 0.00 | 0.00 | 0.00 | 46 | 1010.4 |
| 20260905211848 | 38 | 360 | 8.0 | 14.5 | 0.00 | 0.00 | 0.00 | 45 | 1010.3 |
| 20260905211818 | 38 | 355 | 6.4 | 14.5 | 0.00 | 0.00 | 0.00 | 45 | 1010.3 |
| 20260905211550 | 38 | 69 | 1.6 | 12.9 | 0.00 | 0.00 | 0.00 | 44 | 1010.3 |
| 20260905211422 | 38 | 355 | 1.6 | 12.9 | 0.00 | 0.00 | 0.00 | 44 | 1010.4 |
| 20260905211327 | 38 | 355 | 3.2 | 12.9 | 0.00 | 0.00 | 0.00 | 43 | 1010.4 |
| 20260905211233 | 38 | 355 | 3.2 | 12.9 | 0.00 | 0.00 | 0.00 | 45 | 1010.3 |
| 20260905211119 | 38 | 337 | 3.2 | 12.9 | 0.00 | 0.00 | 0.00 | 45 | 1010.4 |
| 20260905211027 | 38 | 320 | 3.2 | 12.9 | 0.00 | 0.00 | 0.00 | 45 | 1010.4 |
| 20260905210934 | 38 | 318 | 4.8 | 12.9 | 0.00 | 0.00 | 0.00 | 45 | 1010.4 |
| 20260905210825 | 38 | 9 | 8.0 | 12.9 | 0.00 | 0.00 | 0.00 | 46 | 1010.4 |
| 20260905210753 | 38 | 26 | 8.0 | 12.9 | 0.00 | 0.00 | 0.00 | 46 | 1010.3 |
| 20260905210658 | 38 | 22 | 6.4 | 12.9 | 0.00 | 0.00 | 0.00 | 46 | 1010.4 |
| 20260905210543 | 38 | 47 | 1.6 | 9.7 | 0.00 | 0.00 | 0.00 | 45 | 1010.3 |
| 20260905210430 | 38 | 20 | 1.6 | 9.7 | 0.00 | 0.00 | 0.00 | 46 | 1010.4 |
| 20260905210337 | 38 | 57 | 3.2 | 9.7 | 0.00 | 0.00 | 0.00 | 47 | 1010.4 |
| 20260905210312 | 38 | 360 | 4.8 | 9.7 | 0.00 | 0.00 | 0.00 | 47 | 1010.4 |
| 20260905210024 | 38 | 355 | 4.8 | 9.7 | 0.00 | 0.00 | 0.00 | 46 | 1010.3 |
| 20260905205951 | 38 | 5 | 4.8 | 9.7 | 0.00 | 0.00 | 0.00 | 45 | 1010.3 |
| 20260905205858 | 38 | 291 | 6.4 | 9.7 | 0.00 | 0.00 | 0.00 | 46 | 1010.2 |
| 20260905205723 | 38 | 290 | 6.4 | 14.5 | 0.00 | 0.00 | 0.00 | 47 | 1010.3 |
| 20260905205630 | 38 | 346 | 6.4 | 14.5 | 0.00 | 0.00 | 0.00 | 46 | 1010.3 |
| 20260905205557 | 38 | 348 | 6.4 | 14.5 | 0.00 | 0.00 | 0.00 | 48 | 1010.4 |
| 20260905205427 | 38 | 9 | 3.2 | 14.5 | 0.00 | 0.00 | 0.00 | 46 | 1010.3 |
| 20260905205335 | 38 | 295 | 3.2 | 14.5 | 0.00 | 0.00 | 0.00 | 47 | 1010.3 |
| 20260905205241 | 38 | 319 | 6.4 | 14.5 | 0.00 | 0.00 | 0.00 | 47 | 1010.4 |
| 20260905205127 | 38 | 10 | 6.4 | 14.5 | 0.00 | 0.00 | 0.00 | 47 | 1010.4 |
| 20260905205033 | 38 | 336 | 9.7 | 14.5 | 0.00 | 0.00 | 0.00 | 47 | 1010.4 |
| 20260905204959 | 38 | 333 | 9.7 | 14.5 | 0.00 | 0.00 | 0.00 | 48 | 1010.4 |
| 20260905204827 | 38 | 22 | 6.4 | 14.5 | 0.00 | 0.00 | 0.00 | 48 | 1010.5 |
| 20260905204758 | 38 | 350 | 4.8 | 12.9 | 0.00 | 0.00 | 0.00 | 48 | 1010.5 |
| 20260905204532 | 38 | 355 | 3.2 | 4.8 | 0.00 | 0.00 | 0.00 | 47 | 1010.5 |
| 20260905204418 | 38 | 294 | 1.6 | 4.8 | 0.00 | 0.00 | 0.00 | 46 | 1010.5 |
| 20260905204324 | 38 | 155 | 1.6 | 6.4 | 0.00 | 0.00 | 0.00 | 45 | 1010.5 |
| 20260905204236 | 38 | 211 | 1.6 | 6.4 | 0.00 | 0.00 | 0.00 | 45 | 1010.6 |
| 20260905204122 | 38 | 209 | 1.6 | 6.4 | 0.00 | 0.00 | 0.00 | 45 | 1010.5 |
| 20260905204030 | 38 | 194 | 1.6 | 12.9 | 0.00 | 0.00 | 0.00 | 45 | 1010.6 |
| 20260905203918 | 38 | 298 | 1.6 | 14.5 | 0.00 | 0.00 | 0.00 | 45 | 1010.6 |
| 20260905203825 | 38 | 79 | 1.6 | 14.5 | 0.00 | 0.00 | 0.00 | 45 | 1010.6 |
| 20260905203735 | 38 | 44 | 1.6 | 14.5 | 0.00 | 0.00 | 0.00 | 48 | 1010.7 |
| 20260905203621 | 38 | 17 | 3.2 | 14.5 | 0.00 | 0.00 | 0.00 | 45 | 1010.7 |
| 20260905203527 | 38 | 17 | 4.8 | 14.5 | 0.00 | 0.00 | 0.00 | 45 | 1010.7 |
| 20260905203433 | 38 | 36 | 4.8 | 14.5 | 0.00 | 0.00 | 0.00 | 48 | 1010.7 |
| 20260905203342 | 38 | 31 | 8.0 | 14.5 | 0.00 | 0.00 | 0.00 | 47 | 1010.7 |
| 20260905203316 | 38 | 309 | 11.3 | 14.5 | 0.00 | 0.00 | 0.00 | 47 | 1010.7 |
| 20260905203029 | 38 | 27 | 9.7 | 14.5 | 0.00 | 0.00 | 0.00 | 47 | 1010.7 |
| 20260905202935 | 38 | 355 | 8.0 | 14.5 | 0.00 | 0.00 | 0.00 | 46 | 1010.8 |
| 20260905202842 | 38 | 55 | 9.7 | 14.5 | 0.00 | 0.00 | 0.00 | 47 | 1010.7 |
| 20260905202728 | 38 | 65 | 8.0 | 14.5 | 0.00 | 0.00 | 0.00 | 46 | 1010.7 |
| 20260905202635 | 38 | 53 | 4.8 | 12.9 | 0.00 | 0.00 | 0.00 | 47 | 1010.8 |
| 20260905202525 | 38 | 11 | 4.8 | 12.9 | 0.00 | 0.00 | 0.00 | 47 | 1010.8 |
| 20260905202432 | 38 | 360 | 4.8 | 12.9 | 0.00 | 0.00 | 0.00 | 47 | 1010.8 |
| 20260905202318 | 37 | 5 | 4.8 | 12.9 | 0.00 | 0.00 | 0.00 | 47 | 1010.8 |
| 20260905202224 | 37 | 324 | 4.8 | 12.9 | 0.00 | 0.00 | 0.00 | 48 | 1010.8 |
| 20260905202132 | 37 | 329 | 6.4 | 12.9 | 0.00 | 0.00 | 0.00 | 48 | 1010.8 |
| 20260905202022 | 37 | 349 | 8.0 | 12.9 | 0.00 | 0.00 | 0.00 | 50 | 1010.8 |
| 20260905201929 | 37 | 12 | 4.8 | 12.9 | 0.00 | 0.00 | 0.00 | 49 | 1010.8 |
| 20260905201835 | 37 | 338 | 1.6 | 8.0 | 0.00 | 0.00 | 0.00 | 47 | 1010.9 |
| 20260905201805 | 37 | 340 | 1.6 | 8.0 | 0.00 | 0.00 | 0.00 | 47 | 1010.9 |
| 20260905201538 | 37 | 235 | 3.2 | 8.0 | 0.00 | 0.00 | 0.00 | 47 | 1010.9 |
| 20260905201428 | 38 | 154 | 3.2 | 8.0 | 0.00 | 0.00 | 0.00 | 46 | 1010.9 |
| 20260905201335 | 38 | 223 | 4.8 | 8.0 | 0.00 | 0.00 | 0.00 | 47 | 1011.0 |
| 20260905201221 | 38 | 248 | 4.8 | 8.0 | 0.00 | 0.00 | 0.00 | 46 | 1011.0 |
| 20260905201128 | 38 | 186 | 3.2 | 8.0 | 0.00 | 0.00 | 0.00 | 46 | 1011.0 |
| 20260905201035 | 38 | 179 | 3.2 | 8.0 | 0.00 | 0.00 | 0.00 | 46 | 1011.1 |
| 20260905200942 | 38 | 311 | 4.8 | 9.7 | 0.00 | 0.00 | 0.00 | 47 | 1011.1 |
| 20260905200832 | 38 | 284 | 3.2 | 8.0 | 0.00 | 0.00 | 0.00 | 49 | 1011.0 |
| 20260905200720 | 38 | 10 | 4.8 | 8.0 | 0.00 | 0.00 | 0.00 | 48 | 1011.1 |
| 20260905200646 | 38 | 5 | 4.8 | 8.0 | 0.00 | 0.00 | 0.00 | 48 | 1011.1 |
| 20260905200531 | 38 | 223 | 1.6 | 9.7 | 0.00 | 0.00 | 0.00 | 48 | 1011.2 |
| 20260905200436 | 38 | 36 | 1.6 | 9.7 | 0.00 | 0.00 | 0.00 | 48 | 1011.1 |
| 20260905200342 | 38 | 30 | 3.2 | 9.7 | 0.00 | 0.00 | 0.00 | 52 | 1011.1 |
| 20260905200255 | 38 | 30 | 4.8 | 9.7 | 0.00 | 0.00 | 0.00 | 48 | 1011.1 |
| 20260905200027 | 38 | 319 | 3.2 | 12.9 | 0.00 | 0.00 | 0.00 | 49 | 1011.3 |
| 20260905195935 | 38 | 70 | 3.2 | 16.1 | 0.00 | 0.00 | 0.00 | 47 | 1011.3 |
| 20260905195820 | 38 | 26 | 6.4 | 16.1 | 0.00 | 0.00 | 0.00 | 46 | 1011.3 |
| 20260905195727 | 38 | 300 | 8.0 | 16.1 | 0.00 | 0.00 | 0.00 | 47 | 1011.4 |
| 20260905195637 | 38 | 321 | 6.4 | 16.1 | 0.00 | 0.00 | 0.00 | 47 | 1011.4 |
| 20260905195524 | 38 | 276 | 1.6 | 16.1 | 0.00 | 0.00 | 0.00 | 47 | 1011.4 |
| 20260905195432 | 38 | 24 | 1.6 | 16.1 | 0.00 | 0.00 | 0.00 | 47 | 1011.4 |
| 20260905195339 | 38 | 355 | 4.8 | 16.1 | 0.00 | 0.00 | 0.00 | 48 | 1011.5 |
| 20260905195226 | 38 | 355 | 8.0 | 16.1 | 0.00 | 0.00 | 0.00 | 48 | 1011.5 |
| 20260905195132 | 38 | 313 | 9.7 | 16.1 | 0.00 | 0.00 | 0.00 | 48 | 1011.4 |
| 20260905195023 | 38 | 336 | 6.4 | 12.9 | 0.00 | 0.00 | 0.00 | 48 | 1011.5 |
| 20260905194929 | 38 | 355 | 6.4 | 12.9 | 0.00 | 0.00 | 0.00 | 47 | 1011.5 |
| 20260905194837 | 38 | 9 | 6.4 | 12.9 | 0.00 | 0.00 | 0.00 | 50 | 1011.5 |
| 20260905194808 | 38 | 10 | 8.0 | 12.9 | 0.00 | 0.00 | 0.00 | 50 | 1011.5 |
| 20260905194526 | 38 | 336 | 8.0 | 12.9 | 0.00 | 0.00 | 0.00 | 48 | 1011.5 |
| 20260905194433 | 38 | 355 | 6.4 | 12.9 | 0.00 | 0.00 | 0.00 | 48 | 1011.5 |
| 20260905194319 | 37 | 296 | 6.4 | 14.5 | 0.00 | 0.00 | 0.00 | 48 | 1011.4 |
| 20260905194227 | 37 | 248 | 4.8 | 16.1 | 0.00 | 0.00 | 0.00 | 49 | 1011.5 |
| 20260905194134 | 37 | 15 | 4.8 | 16.1 | 0.00 | 0.00 | 0.00 | 49 | 1011.5 |
| 20260905194020 | 37 | 291 | 6.4 | 16.1 | 0.00 | 0.00 | 0.00 | 51 | 1011.4 |
| 20260905193947 | 37 | 340 | 6.4 | 16.1 | 0.00 | 0.00 | 0.00 | 52 | 1011.6 |
| 20260905193836 | 37 | 331 | 6.4 | 16.1 | 0.00 | 0.00 | 0.00 | 51 | 1011.5 |
| 20260905193722 | 37 | 12 | 8.0 | 16.1 | 0.00 | 0.00 | 0.00 | 51 | 1011.6 |
| 20260905193628 | 37 | 331 | 9.7 | 16.1 | 0.00 | 0.00 | 0.00 | 51 | 1011.6 |
| 20260905193556 | 37 | 9 | 8.0 | 16.1 | 0.00 | 0.00 | 0.00 | 51 | 1011.7 |
| 20260905193440 | 37 | 19 | 3.2 | 14.5 | 0.00 | 0.00 | 0.00 | 48 | 1011.6 |
| 20260905193328 | 37 | 63 | 3.2 | 14.5 | 0.00 | 0.00 | 0.00 | 48 | 1011.6 |
| 20260905193303 | 37 | 5 | 4.8 | 14.5 | 0.00 | 0.00 | 0.00 | 47 | 1011.6 |
| 20260905193036 | 37 | 70 | 8.0 | 14.5 | 0.00 | 0.00 | 0.00 | 48 | 1011.6 |
| 20260905192922 | 37 | 41 | 6.4 | 14.5 | 0.00 | 0.00 | 0.00 | 47 | 1011.6 |
| 20260905192830 | 37 | 49 | 9.7 | 14.5 | 0.00 | 0.00 | 0.00 | 48 | 1011.6 |
| 20260905192757 | 37 | 26 | 9.7 | 14.5 | 0.00 | 0.00 | 0.00 | 48 | 1011.7 |
| 20260905192626 | 37 | 61 | 6.4 | 14.5 | 0.00 | 0.00 | 0.00 | 49 | 1011.6 |
| 20260905192532 | 37 | 36 | 6.4 | 14.5 | 0.00 | 0.00 | 0.00 | 49 | 1011.6 |
| 20260905192458 | 37 | 319 | 8.0 | 14.5 | 0.00 | 0.00 | 0.00 | 50 | 1011.6 |
| 20260905192343 | 37 | 346 | 4.8 | 16.1 | 0.00 | 0.00 | 0.00 | 49 | 1011.6 |
| 20260905192229 | 37 | 297 | 3.2 | 16.1 | 0.00 | 0.00 | 0.00 | 50 | 1011.7 |
| 20260905192155 | 37 | 14 | 3.2 | 16.1 | 0.00 | 0.00 | 0.00 | 48 | 1011.7 |
| 20260905192021 | 37 | 51 | 4.8 | 16.1 | 0.00 | 0.00 | 0.00 | 50 | 1011.8 |
| 20260905191930 | 37 | 355 | 4.8 | 16.1 | 0.00 | 0.00 | 0.00 | 49 | 1011.7 |
| 20260905191838 | 37 | 331 | 6.4 | 16.1 | 0.00 | 0.00 | 0.00 | 52 | 1011.8 |
| 20260905191809 | 37 | 292 | 8.0 | 16.1 | 0.00 | 0.00 | 0.00 | 50 | 1011.8 |
| 20260905191523 | 37 | 307 | 8.0 | 16.1 | 0.00 | 0.00 | 0.00 | 50 | 1011.8 |
| 20260905191435 | 37 | 333 | 6.4 | 12.9 | 0.00 | 0.00 | 0.00 | 51 | 1011.8 |
| 20260905191321 | 37 | 355 | 6.4 | 12.9 | 0.00 | 0.00 | 0.00 | 51 | 1011.9 |
| 20260905191229 | 37 | 322 | 4.8 | 9.7 | 0.00 | 0.00 | 0.00 | 52 | 1011.9 |
| 20260905191135 | 37 | 30 | 4.8 | 9.7 | 0.00 | 0.00 | 0.00 | 51 | 1011.9 |
| 20260905191022 | 37 | 36 | 3.2 | 9.7 | 0.00 | 0.00 | 0.00 | 53 | 1011.9 |
| 20260905190929 | 37 | 5 | 4.8 | 9.7 | 0.00 | 0.00 | 0.00 | 49 | 1011.9 |
| 20260905190820 | 37 | 360 | 3.2 | 9.7 | 0.00 | 0.00 | 0.00 | 51 | 1011.9 |
| 20260905190728 | 37 | 302 | 3.2 | 8.0 | 0.00 | 0.00 | 0.00 | 50 | 1012.0 |
| 20260905190656 | 37 | 22 | 3.2 | 8.0 | 0.00 | 0.00 | 0.00 | 51 | 1012.0 |
| 20260905190523 | 37 | 78 | 3.2 | 9.7 | 0.00 | 0.00 | 0.00 | 50 | 1012.0 |
| 20260905190430 | 37 | 308 | 4.8 | 9.7 | 0.00 | 0.00 | 0.00 | 51 | 1012.1 |
| 20260905190336 | 37 | 314 | 4.8 | 9.7 | 0.00 | 0.00 | 0.00 | 52 | 1012.1 |
| 20260905190312 | 37 | 335 | 3.2 | 9.7 | 0.00 | 0.00 | 0.00 | 52 | 1012.1 |
| 20260905190024 | 37 | 303 | 3.2 | 9.7 | 0.00 | 0.00 | 0.00 | 50 | 1012.1 |
| 20260905185929 | 37 | 56 | 6.4 | 9.7 | 0.00 | 0.00 | 0.00 | 50 | 1012.1 |
| 20260905185856 | 37 | 76 | 4.8 | 12.9 | 0.00 | 0.00 | 0.00 | 51 | 1012.2 |
| 20260905185727 | 37 | 91 | 4.8 | 14.5 | 0.00 | 0.00 | 0.00 | 50 | 1012.2 |
| 20260905185632 | 37 | 83 | 6.4 | 14.5 | 0.00 | 0.00 | 0.00 | 50 | 1012.2 |
| 20260905185537 | 37 | 66 | 4.8 | 17.7 | 0.00 | 0.00 | 0.00 | 54 | 1012.2 |
| 20260905185423 | 37 | 121 | 6.4 | 17.7 | 0.00 | 0.00 | 0.00 | 54 | 1012.2 |
| 20260905185330 | 37 | 144 | 6.4 | 17.7 | 0.00 | 0.00 | 0.00 | 53 | 1012.2 |
| 20260905185258 | 37 | 131 | 6.4 | 17.7 | 0.00 | 0.00 | 0.00 | 52 | 1012.3 |
| 20260905185143 | 37 | 56 | 6.4 | 17.7 | 0.00 | 0.00 | 0.00 | 49 | 1012.2 |
| 20260905185049 | 37 | 28 | 6.4 | 17.7 | 0.00 | 0.00 | 0.00 | 51 | 1012.3 |
| 20260905184921 | 37 | 348 | 8.0 | 17.7 | 0.00 | 0.00 | 0.00 | 49 | 1012.3 |
| 20260905184828 | 37 | 46 | 8.0 | 17.7 | 0.00 | 0.00 | 0.00 | 50 | 1012.3 |
| 20260905184757 | 37 | 77 | 8.0 | 14.5 | 0.00 | 0.00 | 0.00 | 52 | 1012.3 |
| 20260905184530 | 37 | 15 | 8.0 | 14.5 | 0.00 | 0.00 | 0.00 | 51 | 1012.3 |
| 20260905184421 | 37 | 321 | 8.0 | 14.5 | 0.00 | 0.00 | 0.00 | 52 | 1012.4 |
| 20260905184328 | 37 | 348 | 8.0 | 14.5 | 0.00 | 0.00 | 0.00 | 53 | 1012.4 |
| 20260905184234 | 37 | 346 | 6.4 | 14.5 | 0.00 | 0.00 | 0.00 | 53 | 1012.4 |
| 20260905184121 | 37 | 27 | 4.8 | 14.5 | 0.00 | 0.00 | 0.00 | 52 | 1012.4 |
| 20260905184028 | 37 | 337 | 4.8 | 14.5 | 0.00 | 0.00 | 0.00 | 52 | 1012.4 |
| 20260905183919 | 37 | 318 | 4.8 | 14.5 | 0.00 | 0.00 | 0.00 | 53 | 1012.5 |
| 20260905183825 | 37 | 283 | 8.0 | 14.5 | 0.00 | 0.00 | 0.00 | 54 | 1012.4 |
| 20260905183733 | 37 | 329 | 8.0 | 14.5 | 0.00 | 0.00 | 0.00 | 54 | 1012.4 |
| 20260905183621 | 37 | 346 | 4.8 | 12.9 | 0.00 | 0.00 | 0.00 | 52 | 1012.4 |
| 20260905183548 | 37 | 317 | 3.2 | 12.9 | 0.00 | 0.00 | 0.00 | 52 | 1012.4 |
| 20260905183434 | 36 | 294 | 4.8 | 12.9 | 0.00 | 0.00 | 0.00 | 53 | 1012.5 |
| 20260905183342 | 36 | 277 | 8.0 | 12.9 | 0.00 | 0.00 | 0.00 | 54 | 1012.5 |
| 20260905183256 | 36 | 302 | 8.0 | 12.9 | 0.00 | 0.00 | 0.00 | 52 | 1012.5 |
| 20260905183029 | 36 | 253 | 6.4 | 14.5 | 0.00 | 0.00 | 0.00 | 53 | 1012.5 |
| 20260905182956 | 36 | 5 | 4.8 | 14.5 | 0.00 | 0.00 | 0.00 | 53 | 1012.5 |
| 20260905182823 | 36 | 313 | 4.8 | 14.5 | 0.00 | 0.00 | 0.00 | 53 | 1012.5 |
| 20260905182731 | 36 | 291 | 4.8 | 14.5 | 0.00 | 0.00 | 0.00 | 54 | 1012.5 |
| 20260905182622 | 36 | 261 | 6.4 | 14.5 | 0.00 | 0.00 | 0.00 | 54 | 1012.6 |
| 20260905182530 | 36 | 281 | 6.4 | 14.5 | 0.00 | 0.00 | 0.00 | 54 | 1012.5 |
| 20260905182457 | 36 | 321 | 4.8 | 14.5 | 0.00 | 0.00 | 0.00 | 54 | 1012.5 |
| 20260905182322 | 36 | 307 | 6.4 | 14.5 | 0.00 | 0.00 | 0.00 | 54 | 1012.5 |
| 20260905182228 | 36 | 300 | 9.7 | 14.5 | 0.00 | 0.00 | 0.00 | 55 | 1012.5 |
| 20260905182118 | 36 | 290 | 8.0 | 14.5 | 0.00 | 0.00 | 0.00 | 54 | 1012.5 |
| 20260905182026 | 36 | 315 | 8.0 | 16.1 | 0.00 | 0.00 | 0.00 | 55 | 1012.5 |
| 20260905181932 | 36 | 309 | 8.0 | 16.1 | 0.00 | 0.00 | 0.00 | 55 | 1012.5 |
| 20260905181839 | 36 | 321 | 6.4 | 16.1 | 0.00 | 0.00 | 0.00 | 55 | 1012.5 |
| 20260905181810 | 36 | 311 | 8.0 | 16.1 | 0.00 | 0.00 | 0.00 | 56 | 1012.5 |
| 20260905181526 | 36 | 5 | 8.0 | 16.1 | 0.00 | 0.00 | 0.00 | 56 | 1012.7 |
| 20260905181433 | 36 | 334 | 8.0 | 16.1 | 0.00 | 0.00 | 0.00 | 56 | 1012.7 |
| 20260905181321 | 36 | 355 | 9.7 | 16.1 | 0.00 | 0.00 | 0.00 | 55 | 1012.7 |
| 20260905181228 | 36 | 14 | 6.4 | 16.1 | 0.00 | 0.00 | 0.00 | 55 | 1012.7 |
| 20260905181134 | 36 | 40 | 1.6 | 11.3 | 0.00 | 0.00 | 0.00 | 54 | 1012.7 |
| 20260905181025 | 36 | 109 | 3.2 | 11.3 | 0.00 | 0.00 | 0.00 | 53 | 1012.7 |
| 20260905180932 | 36 | 77 | 3.2 | 11.3 | 0.00 | 0.00 | 0.00 | 55 | 1012.7 |
| 20260905180820 | 36 | 171 | 4.8 | 11.3 | 0.00 | 0.00 | 0.00 | 53 | 1012.8 |
| 20260905180727 | 36 | 109 | 6.4 | 11.3 | 0.00 | 0.00 | 0.00 | 52 | 1012.8 |
| 20260905180634 | 36 | 135 | 6.4 | 11.3 | 0.00 | 0.00 | 0.00 | 56 | 1012.7 |
| 20260905180520 | 36 | 108 | 4.8 | 9.7 | 0.00 | 0.00 | 0.00 | 54 | 1012.7 |
| 20260905180452 | 36 | 80 | 3.2 | 11.3 | 0.00 | 0.00 | 0.00 | 54 | 1012.8 |
| 20260905180358 | 36 | 51 | 1.6 | 9.7 | 0.00 | 0.00 | 0.00 | 54 | 1012.8 |
| 20260905180330 | 36 | 44 | 1.6 | 12.9 | 0.00 | 0.00 | 0.00 | 55 | 1012.9 |
| 20260905180022 | 36 | 327 | 4.8 | 12.9 | 0.00 | 0.00 | 0.00 | 53 | 1012.9 |
| 20260905175929 | 36 | 9 | 4.8 | 12.9 | 0.00 | 0.00 | 0.00 | 55 | 1012.9 |
| 20260905175820 | 36 | 360 | 6.4 | 12.9 | 0.00 | 0.00 | 0.00 | 54 | 1012.9 |
| 20260905175726 | 36 | 25 | 6.4 | 12.9 | 0.00 | 0.00 | 0.00 | 54 | 1013.0 |
| 20260905175632 | 36 | 30 | 8.0 | 12.9 | 0.00 | 0.00 | 0.00 | 54 | 1012.9 |
| 20260905175519 | 36 | 333 | 8.0 | 12.9 | 0.00 | 0.00 | 0.00 | 56 | 1012.9 |
| 20260905175427 | 36 | 337 | 6.4 | 12.9 | 0.00 | 0.00 | 0.00 | 56 | 1013.0 |
| 20260905175318 | 36 | 5 | 3.2 | 14.5 | 0.00 | 0.00 | 0.00 | 55 | 1013.0 |
| 20260905175227 | 36 | 19 | 1.6 | 14.5 | 0.00 | 0.00 | 0.00 | 56 | 1013.0 |
| 20260905175134 | 36 | 261 | 1.6 | 14.5 | 0.00 | 0.00 | 0.00 | 53 | 1013.0 |
| 20260905175021 | 36 | 274 | 1.6 | 14.5 | 0.00 | 0.00 | 0.00 | 54 | 1012.9 |
| 20260905174928 | 36 | 329 | 1.6 | 14.5 | 0.00 | 0.00 | 0.00 | 54 | 1013.0 |
| 20260905174836 | 36 | 329 | 4.8 | 14.5 | 0.00 | 0.00 | 0.00 | 56 | 1012.9 |
| 20260905174811 | 36 | 322 | 8.0 | 14.5 | 0.00 | 0.00 | 0.00 | 56 | 1012.9 |
| 20260905174524 | 36 | 351 | 11.3 | 14.5 | 0.00 | 0.00 | 0.00 | 56 | 1013.0 |
| 20260905174432 | 36 | 5 | 9.7 | 14.5 | 0.00 | 0.00 | 0.00 | 56 | 1013.0 |
| 20260905174320 | 36 | 327 | 8.0 | 14.5 | 0.00 | 0.00 | 0.00 | 55 | 1013.0 |
| 20260905174230 | 36 | 313 | 4.8 | 12.9 | 0.00 | 0.00 | 0.00 | 56 | 1013.0 |
| 20260905174119 | 36 | 355 | 3.2 | 8.0 | 0.00 | 0.00 | 0.00 | 56 | 1013.1 |
| 20260905174027 | 36 | 206 | 4.8 | 8.0 | 0.00 | 0.00 | 0.00 | 55 | 1013.1 |
| 20260905173934 | 36 | 308 | 4.8 | 8.0 | 0.00 | 0.00 | 0.00 | 55 | 1013.1 |
| 20260905173822 | 36 | 339 | 4.8 | 8.0 | 0.00 | 0.00 | 0.00 | 57 | 1013.0 |
| 20260905173748 | 36 | 314 | 4.8 | 8.0 | 0.00 | 0.00 | 0.00 | 57 | 1013.1 |
| 20260905173639 | 36 | 286 | 4.8 | 8.0 | 0.00 | 0.00 | 0.00 | 56 | 1013.1 |
| 20260905173525 | 36 | 252 | 3.2 | 8.0 | 0.00 | 0.00 | 0.00 | 58 | 1013.1 |
| 20260905173432 | 36 | 191 | 1.6 | 9.7 | 0.00 | 0.00 | 0.00 | 57 | 1013.1 |
| 20260905173338 | 36 | 100 | 1.6 | 9.7 | 0.00 | 0.00 | 0.00 | 55 | 1013.2 |
| 20260905173309 | 36 | 186 | 3.2 | 9.7 | 0.00 | 0.00 | 0.00 | 55 | 1013.2 |
| 20260905173026 | 36 | 20 | 4.8 | 12.9 | 0.00 | 0.00 | 0.00 | 58 | 1013.1 |
| 20260905172953 | 36 | 25 | 4.8 | 14.5 | 0.00 | 0.00 | 0.00 | 56 | 1013.2 |
| 20260905172818 | 36 | 5 | 4.8 | 14.5 | 0.00 | 0.00 | 0.00 | 57 | 1013.1 |
| 20260905172725 | 35 | 346 | 4.8 | 14.5 | 0.00 | 0.00 | 0.00 | 56 | 1013.3 |
| 20260905172633 | 35 | 355 | 6.4 | 14.5 | 0.00 | 0.00 | 0.00 | 57 | 1013.3 |
| 20260905172541 | 35 | 323 | 6.4 | 14.5 | 0.00 | 0.00 | 0.00 | 57 | 1013.3 |
| 20260905172447 | 35 | 296 | 6.4 | 14.5 | 0.00 | 0.00 | 0.00 | 57 | 1013.3 |
| 20260905172336 | 35 | 344 | 8.0 | 14.5 | 0.00 | 0.00 | 0.00 | 58 | 1013.3 |
| 20260905172223 | 35 | 321 | 9.7 | 16.1 | 0.00 | 0.00 | 0.00 | 57 | 1013.3 |
| 20260905172129 | 35 | 339 | 11.3 | 16.1 | 0.00 | 0.00 | 0.00 | 57 | 1013.3 |
| 20260905172056 | 35 | 26 | 9.7 | 16.1 | 0.00 | 0.00 | 0.00 | 57 | 1013.3 |
| 20260905171922 | 35 | 360 | 8.0 | 16.1 | 0.00 | 0.00 | 0.00 | 58 | 1013.4 |
| 20260905171829 | 35 | 343 | 8.0 | 16.1 | 0.00 | 0.00 | 0.00 | 56 | 1013.3 |
| 20260905171804 | 35 | 5 | 9.7 | 16.1 | 0.00 | 0.00 | 0.00 | 58 | 1013.3 |
| 20260905171518 | 35 | 328 | 11.3 | 16.1 | 0.00 | 0.00 | 0.00 | 57 | 1013.3 |
| 20260905171425 | 35 | 308 | 11.3 | 16.1 | 0.00 | 0.00 | 0.00 | 59 | 1013.4 |
| 20260905171332 | 35 | 327 | 8.0 | 16.1 | 0.00 | 0.00 | 0.00 | 59 | 1013.4 |
| 20260905171223 | 35 | 339 | 6.4 | 11.3 | 0.00 | 0.00 | 0.00 | 57 | 1013.4 |
| 20260905171130 | 35 | 348 | 6.4 | 11.3 | 0.00 | 0.00 | 0.00 | 57 | 1013.4 |
| 20260905171057 | 35 | 355 | 6.4 | 11.3 | 0.00 | 0.00 | 0.00 | 58 | 1013.4 |
| 20260905170924 | 35 | 223 | 4.8 | 11.3 | 0.00 | 0.00 | 0.00 | 57 | 1013.4 |
| 20260905170832 | 35 | 225 | 4.8 | 11.3 | 0.00 | 0.00 | 0.00 | 56 | 1013.4 |
| 20260905170719 | 35 | 212 | 4.8 | 11.3 | 0.00 | 0.00 | 0.00 | 56 | 1013.4 |
| 20260905170630 | 35 | 114 | 4.8 | 11.3 | 0.00 | 0.00 | 0.00 | 56 | 1013.3 |
| 20260905170536 | 36 | 211 | 6.4 | 12.9 | 0.00 | 0.00 | 0.00 | 57 | 1013.5 |
| 20260905170424 | 36 | 228 | 6.4 | 12.9 | 0.00 | 0.00 | 0.00 | 58 | 1013.5 |
| 20260905170331 | 36 | 302 | 4.8 | 12.9 | 0.00 | 0.00 | 0.00 | 58 | 1013.4 |
| 20260905170301 | 36 | 252 | 4.8 | 12.9 | 0.00 | 0.00 | 0.00 | 58 | 1013.4 |
| 20260905170037 | 35 | 268 | 6.4 | 12.9 | 0.00 | 0.00 | 0.00 | 57 | 1013.5 |
| 20260905165945 | 36 | 309 | 4.8 | 12.9 | 0.00 | 0.00 | 0.00 | 58 | 1013.4 |
| 20260905165831 | 36 | 281 | 3.2 | 12.9 | 0.00 | 0.00 | 0.00 | 56 | 1013.5 |
| 20260905165738 | 36 | 203 | 3.2 | 12.9 | 0.00 | 0.00 | 0.00 | 58 | 1013.5 |
| 20260905165623 | 35 | 313 | 4.8 | 12.9 | 0.00 | 0.00 | 0.00 | 57 | 1013.5 |
| 20260905165530 | 35 | 360 | 4.8 | 12.9 | 0.00 | 0.00 | 0.00 | 58 | 1013.4 |
| 20260905165420 | 35 | 355 | 4.8 | 14.5 | 0.00 | 0.00 | 0.00 | 56 | 1013.4 |
| 20260905165327 | 35 | 342 | 6.4 | 14.5 | 0.00 | 0.00 | 0.00 | 58 | 1013.5 |
| 20260905165234 | 35 | 328 | 8.0 | 16.1 | 0.00 | 0.00 | 0.00 | 58 | 1013.5 |
| 20260905165119 | 35 | 338 | 8.0 | 16.1 | 0.00 | 0.00 | 0.00 | 59 | 1013.6 |
| 20260905165025 | 35 | 346 | 6.4 | 16.1 | 0.00 | 0.00 | 0.00 | 59 | 1013.7 |
| 20260905164931 | 35 | 342 | 6.4 | 16.1 | 0.00 | 0.00 | 0.00 | 59 | 1013.6 |
| 20260905164902 | 35 | 348 | 8.0 | 16.1 | 0.00 | 0.00 | 0.00 | 59 | 1013.6 |
| 20260905164811 | 35 | 319 | 9.7 | 16.1 | 0.00 | 0.00 | 0.00 | 59 | 1013.6 |
| 20260905164543 | 35 | 5 | 11.3 | 16.1 | 0.00 | 0.00 | 0.00 | 60 | 1013.6 |
| 20260905164429 | 35 | 348 | 9.7 | 16.1 | 0.00 | 0.00 | 0.00 | 61 | 1013.6 |
| 20260905164336 | 35 | 355 | 8.0 | 16.1 | 0.00 | 0.00 | 0.00 | 59 | 1013.7 |
| 20260905164228 | 35 | 306 | 9.7 | 14.5 | 0.00 | 0.00 | 0.00 | 58 | 1013.7 |
| 20260905164134 | 35 | 325 | 9.7 | 14.5 | 0.00 | 0.00 | 0.00 | 59 | 1013.7 |
| 20260905164022 | 35 | 335 | 8.0 | 14.5 | 0.00 | 0.00 | 0.00 | 58 | 1013.6 |
| 20260905163948 | 35 | 318 | 8.0 | 14.5 | 0.00 | 0.00 | 0.00 | 58 | 1013.8 |
| 20260905163834 | 35 | 273 | 8.0 | 14.5 | 0.00 | 0.00 | 0.00 | 60 | 1013.7 |
| 20260905163721 | 35 | 253 | 8.0 | 12.9 | 0.00 | 0.00 | 0.00 | 58 | 1013.8 |
| 20260905163631 | 35 | 268 | 4.8 | 12.9 | 0.00 | 0.00 | 0.00 | 58 | 1013.8 |
| 20260905163519 | 35 | 313 | 4.8 | 12.9 | 0.00 | 0.00 | 0.00 | 59 | 1013.7 |
| 20260905163445 | 35 | 341 | 4.8 | 12.9 | 0.00 | 0.00 | 0.00 | 58 | 1013.8 |
| 20260905163331 | 35 | 298 | 8.0 | 12.9 | 0.00 | 0.00 | 0.00 | 58 | 1013.8 |
| 20260905163300 | 35 | 282 | 8.0 | 12.9 | 0.00 | 0.00 | 0.00 | 59 | 1013.8 |
| 20260905163037 | 35 | 309 | 4.8 | 12.9 | 0.00 | 0.00 | 0.00 | 59 | 1013.8 |
| 20260905162925 | 35 | 315 | 3.2 | 12.9 | 0.00 | 0.00 | 0.00 | 60 | 1013.9 |
| 20260905162851 | 35 | 226 | 6.4 | 12.9 | 0.00 | 0.00 | 0.00 | 61 | 1014.0 |
| 20260905162737 | 35 | 5 | 8.0 | 12.9 | 0.00 | 0.00 | 0.00 | 61 | 1014.0 |
| 20260905162623 | 35 | 355 | 6.4 | 12.9 | 0.00 | 0.00 | 0.00 | 61 | 1014.0 |
| 20260905162529 | 35 | 5 | 4.8 | 12.9 | 0.00 | 0.00 | 0.00 | 60 | 1014.0 |
| 20260905162419 | 35 | 355 | 4.8 | 12.9 | 0.00 | 0.00 | 0.00 | 60 | 1014.1 |
| 20260905162346 | 35 | 294 | 6.4 | 12.9 | 0.00 | 0.00 | 0.00 | 60 | 1014.0 |
| 20260905162233 | 35 | 267 | 4.8 | 12.9 | 0.00 | 0.00 | 0.00 | 59 | 1014.0 |
| 20260905162120 | 35 | 284 | 6.4 | 12.9 | 0.00 | 0.00 | 0.00 | 60 | 1014.1 |
| 20260905162027 | 35 | 294 | 6.4 | 12.9 | 0.00 | 0.00 | 0.00 | 59 | 1014.0 |
| 20260905161933 | 35 | 288 | 6.4 | 12.9 | 0.00 | 0.00 | 0.00 | 60 | 1014.0 |
| 20260905161844 | 35 | 327 | 4.8 | 9.7 | 0.00 | 0.00 | 0.00 | 60 | 1014.0 |
| 20260905161815 | 35 | 344 | 3.2 | 9.7 | 0.00 | 0.00 | 0.00 | 59 | 1014.0 |
| 20260905161527 | 35 | 48 | 3.2 | 9.7 | 0.00 | 0.00 | 0.00 | 61 | 1014.1 |
| 20260905161434 | 35 | 53 | 4.8 | 9.7 | 0.00 | 0.00 | 0.00 | 59 | 1014.1 |
| 20260905161325 | 35 | 36 | 4.8 | 9.7 | 0.00 | 0.00 | 0.00 | 63 | 1014.1 |
| 20260905161231 | 34 | 20 | 4.8 | 12.9 | 0.00 | 0.00 | 0.00 | 62 | 1014.1 |
| 20260905161157 | 34 | 5 | 4.8 | 12.9 | 0.00 | 0.00 | 0.00 | 62 | 1014.1 |
| 20260905161023 | 34 | 24 | 4.8 | 12.9 | 0.00 | 0.00 | 0.00 | 62 | 1014.1 |
| 20260905160949 | 34 | 287 | 4.8 | 12.9 | 0.00 | 0.00 | 0.00 | 61 | 1014.1 |
| 20260905160835 | 34 | 318 | 4.8 | 12.9 | 0.00 | 0.00 | 0.00 | 60 | 1014.1 |
| 20260905160720 | 34 | 296 | 4.8 | 12.9 | 0.00 | 0.00 | 0.00 | 61 | 1014.2 |
| 20260905160629 | 34 | 318 | 4.8 | 12.9 | 0.00 | 0.00 | 0.00 | 61 | 1014.2 |
| 20260905160518 | 34 | 301 | 8.0 | 12.9 | 0.00 | 0.00 | 0.00 | 63 | 1014.2 |
| 20260905160423 | 34 | 320 | 6.4 | 12.9 | 0.00 | 0.00 | 0.00 | 64 | 1014.3 |
| 20260905160330 | 34 | 322 | 6.4 | 9.7 | 0.00 | 0.00 | 0.00 | 63 | 1014.3 |
| 20260905160300 | 34 | 327 | 6.4 | 9.7 | 0.00 | 0.00 | 0.00 | 64 | 1014.3 |
| 20260905160057 | 33 | 13 | 6.4 | 9.7 | 0.00 | 0.00 | 0.00 | 63 | 1014.4 |
| 20260905155922 | 33 | 321 | 1.6 | 8.0 | 0.00 | 0.00 | 0.00 | 64 | 1014.2 |
| 20260905155829 | 33 | 259 | 0.0 | 8.0 | 0.00 | 0.00 | 0.00 | 64 | 1014.3 |
| 20260905155736 | 33 | 311 | 0.0 | 8.0 | 0.00 | 0.00 | 0.00 | 63 | 1014.3 |
| 20260905155623 | 33 | 311 | 1.6 | 8.0 | 0.00 | 0.00 | 0.00 | 63 | 1014.3 |
| 20260905155530 | 33 | 23 | 1.6 | 8.0 | 0.00 | 0.00 | 0.00 | 62 | 1014.2 |
| 20260905155420 | 33 | 126 | 4.8 | 8.0 | 0.00 | 0.00 | 0.00 | 61 | 1014.3 |
| 20260905155326 | 33 | 126 | 4.8 | 8.0 | 0.00 | 0.00 | 0.00 | 62 | 1014.3 |
| 20260905155253 | 33 | 209 | 4.8 | 8.0 | 0.00 | 0.00 | 0.00 | 62 | 1014.3 |
| 20260905155120 | 33 | 225 | 3.2 | 9.7 | 0.00 | 0.00 | 0.00 | 61 | 1014.3 |
| 20260905155029 | 33 | 186 | 1.6 | 9.7 | 0.00 | 0.00 | 0.00 | 62 | 1014.3 |
| 20260905154919 | 33 | 253 | 1.6 | 9.7 | 0.00 | 0.00 | 0.00 | 62 | 1014.4 |
| 20260905154825 | 33 | 355 | 3.2 | 9.7 | 0.00 | 0.00 | 0.00 | 63 | 1014.3 |
| 20260905154755 | 33 | 355 | 4.8 | 9.7 | 0.00 | 0.00 | 0.00 | 63 | 1014.3 |
| 20260905154528 | 33 | 317 | 6.4 | 9.7 | 0.00 | 0.00 | 0.00 | 65 | 1014.3 |
| 20260905154433 | 33 | 336 | 6.4 | 9.7 | 0.00 | 0.00 | 0.00 | 63 | 1014.4 |
| 20260905154323 | 33 | 313 | 6.4 | 9.7 | 0.00 | 0.00 | 0.00 | 63 | 1014.3 |
| 20260905154230 | 33 | 355 | 4.8 | 6.4 | 0.00 | 0.00 | 0.00 | 63 | 1014.3 |
| 20260905154117 | 33 | 333 | 4.8 | 6.4 | 0.00 | 0.00 | 0.00 | 63 | 1014.4 |
| 20260905154043 | 33 | 322 | 3.2 | 6.4 | 0.00 | 0.00 | 0.00 | 63 | 1014.4 |
| 20260905153929 | 33 | 347 | 1.6 | 6.4 | 0.00 | 0.00 | 0.00 | 64 | 1014.4 |
| 20260905153837 | 33 | 190 | 1.6 | 6.4 | 0.00 | 0.00 | 0.00 | 64 | 1014.4 |
| 20260905153727 | 33 | 287 | 3.2 | 6.4 | 0.00 | 0.00 | 0.00 | 64 | 1014.4 |
| 20260905153633 | 33 | 346 | 1.6 | 6.4 | 0.00 | 0.00 | 0.00 | 65 | 1014.4 |
| 20260905153520 | 33 | 309 | 3.2 | 6.4 | 0.00 | 0.00 | 0.00 | 65 | 1014.4 |
| 20260905153428 | 33 | 295 | 3.2 | 8.0 | 0.00 | 0.00 | 0.00 | 66 | 1014.5 |
| 20260905153335 | 33 | 15 | 3.2 | 8.0 | 0.00 | 0.00 | 0.00 | 65 | 1014.5 |
| 20260905153309 | 33 | 360 | 3.2 | 8.0 | 0.00 | 0.00 | 0.00 | 65 | 1014.5 |
| 20260905153023 | 33 | 5 | 4.8 | 8.0 | 0.00 | 0.00 | 0.00 | 67 | 1014.5 |
| 20260905152930 | 33 | 13 | 4.8 | 8.0 | 0.00 | 0.00 | 0.00 | 65 | 1014.5 |
| 20260905152837 | 33 | 346 | 4.8 | 8.0 | 0.00 | 0.00 | 0.00 | 66 | 1014.4 |
| 20260905152723 | 33 | 360 | 4.8 | 8.0 | 0.00 | 0.00 | 0.00 | 66 | 1014.4 |
| 20260905152634 | 33 | 360 | 4.8 | 8.0 | 0.00 | 0.00 | 0.00 | 66 | 1014.4 |
| 20260905152520 | 33 | 321 | 3.2 | 8.0 | 0.00 | 0.00 | 0.00 | 65 | 1014.4 |
| 20260905152427 | 33 | 275 | 3.2 | 12.9 | 0.00 | 0.00 | 0.00 | 65 | 1014.3 |
| 20260905152332 | 33 | 32 | 4.8 | 12.9 | 0.00 | 0.00 | 0.00 | 67 | 1014.4 |
| 20260905152219 | 33 | 333 | 6.4 | 12.9 | 0.00 | 0.00 | 0.00 | 66 | 1014.4 |
| 20260905152127 | 33 | 360 | 4.8 | 12.9 | 0.00 | 0.00 | 0.00 | 67 | 1014.4 |
| 20260905152036 | 33 | 341 | 4.8 | 12.9 | 0.00 | 0.00 | 0.00 | 66 | 1014.4 |